<?xml version="1.0" encoding="UTF-8" standalone="no" ?>
<gpx xmlns="http://www.topografix.com/GPX/1/1" xmlns:xsi="http://www.w3.org/2001/XMLSchema-instance" xsi:schemaLocation="http://www.topografix.com/GPX/1/1 http://www.topografix.com/GPX/1/1/gpx.xsd" version="1.1" creator="VisuGPX - https://www.visugpx.com">
  <metadata>
    <name>CrossTriathlon XS</name>
    <desc><![CDATA[[titre]Triathlon Côte de Granit Rose[/titre]
CrossTriathlon XS
]]></desc>
  </metadata>
  <trk>
    <name><![CDATA[Natation]]></name>
    <extensions>
      <line xmlns="http://www.topografix.com/GPX/gpx_style/0/2">
        <color>0facf0</color>
        <opacity>1</opacity>
        <width>4</width>
      </line>
    </extensions>
    <trkseg>
      <trkpt lat="48.8305" lon="-3.52212">
        <ele>1.5</ele>
        <time>2015-06-07T14:04:57.000Z</time>
      </trkpt>
      <trkpt lat="48.83153" lon="-3.522">
        <time>2015-06-07T14:05:22.000Z</time>
      </trkpt>
      <trkpt lat="48.83181" lon="-3.52202">
        <time>2015-06-07T14:05:56.000Z</time>
      </trkpt>
      <trkpt lat="48.83226" lon="-3.52195">
        <time>2015-06-07T14:06:34.000Z</time>
      </trkpt>
      <trkpt lat="48.83247" lon="-3.52204">
        <time>2015-06-07T14:06:57.000Z</time>
      </trkpt>
      <trkpt lat="48.83293" lon="-3.52179">
        <time>2015-06-07T14:08:02.000Z</time>
      </trkpt>
      <trkpt lat="48.83283" lon="-3.5211">
        <time>2015-06-07T14:09:07.000Z</time>
      </trkpt>
      <trkpt lat="48.83256" lon="-3.52038">
        <ele>2.7</ele>
        <time>2015-06-07T14:10:06.000Z</time>
      </trkpt>
      <trkpt lat="48.83214" lon="-3.52044">
        <ele>3.3</ele>
        <time>2015-06-07T14:11:13.000Z</time>
      </trkpt>
      <trkpt lat="48.83169" lon="-3.52067">
        <ele>1</ele>
        <time>2015-06-07T14:12:05.000Z</time>
      </trkpt>
      <trkpt lat="48.83132" lon="-3.52085">
        <ele>1</ele>
        <time>2015-06-07T14:12:42.000Z</time>
      </trkpt>
    </trkseg>
  </trk>
  <trk>
    <name><![CDATA[VTT]]></name>
    <extensions>
      <line xmlns="http://www.topografix.com/GPX/gpx_style/0/2">
        <color>223a69</color>
        <opacity>1</opacity>
        <width>4</width>
          <extensions>
            <sens>1</sens>
          </extensions>
      </line>
    </extensions>
    <trkseg>
      <trkpt lat="48.82876" lon="-3.52158">
        <ele>9.38</ele>
        <time>2025-02-22T14:26:22.000Z</time>
      </trkpt>
      <trkpt lat="48.82895" lon="-3.52162">
        <ele>9.99</ele>
        <time>2025-02-22T14:26:22.006Z</time>
      </trkpt>
      <trkpt lat="48.82914" lon="-3.52165">
        <ele>10.61</ele>
        <time>2025-02-22T14:26:22.019Z</time>
      </trkpt>
      <trkpt lat="48.82912" lon="-3.5213">
        <ele>11.34</ele>
        <time>2025-02-22T14:26:22.040Z</time>
      </trkpt>
      <trkpt lat="48.8291" lon="-3.52095">
        <ele>12.27</ele>
        <time>2025-02-22T14:26:22.068Z</time>
      </trkpt>
      <trkpt lat="48.82908" lon="-3.5206">
        <ele>13.17</ele>
        <time>2025-02-22T14:26:22.104Z</time>
      </trkpt>
      <trkpt lat="48.82906" lon="-3.52035">
        <ele>14</ele>
        <time>2025-02-22T14:26:22.146Z</time>
      </trkpt>
      <trkpt lat="48.82903" lon="-3.52009">
        <ele>14.85</ele>
        <time>2025-02-22T14:26:22.193Z</time>
      </trkpt>
      <trkpt lat="48.82903" lon="-3.5201">
        <ele>14.86</ele>
        <time>2025-02-22T14:26:22.240Z</time>
      </trkpt>
      <trkpt lat="48.829" lon="-3.51977">
        <ele>15.89</ele>
        <time>2025-02-22T14:26:22.295Z</time>
      </trkpt>
      <trkpt lat="48.82897" lon="-3.51944">
        <ele>16.98</ele>
        <time>2025-02-22T14:26:22.357Z</time>
      </trkpt>
      <trkpt lat="48.82897" lon="-3.51934">
        <ele>18.05</ele>
        <time>2025-02-22T14:26:22.421Z</time>
      </trkpt>
      <trkpt lat="48.8289" lon="-3.51895">
        <ele>19.34</ele>
        <time>2025-02-22T14:26:22.494Z</time>
      </trkpt>
      <trkpt lat="48.82883" lon="-3.51857">
        <ele>20.66</ele>
        <time>2025-02-22T14:26:22.576Z</time>
      </trkpt>
      <trkpt lat="48.82875" lon="-3.51819">
        <ele>21.94</ele>
        <time>2025-02-22T14:26:22.667Z</time>
      </trkpt>
      <trkpt lat="48.82868" lon="-3.51781">
        <ele>23.18</ele>
        <time>2025-02-22T14:26:22.766Z</time>
      </trkpt>
      <trkpt lat="48.82861" lon="-3.51743">
        <ele>24.01</ele>
        <time>2025-02-22T14:26:22.874Z</time>
      </trkpt>
      <trkpt lat="48.82855" lon="-3.5173">
        <ele>24.52</ele>
        <time>2025-02-22T14:26:22.985Z</time>
      </trkpt>
      <trkpt lat="48.82855" lon="-3.5173">
        <ele>24.53</ele>
        <time>2025-02-22T14:26:23.096Z</time>
      </trkpt>
      <trkpt lat="48.82844" lon="-3.51705">
        <ele>24.81</ele>
        <time>2025-02-22T14:26:23.214Z</time>
      </trkpt>
      <trkpt lat="48.82833" lon="-3.51681">
        <ele>24.78</ele>
        <time>2025-02-22T14:26:23.339Z</time>
      </trkpt>
      <trkpt lat="48.8282" lon="-3.51659">
        <ele>24.58</ele>
        <time>2025-02-22T14:26:23.470Z</time>
      </trkpt>
      <trkpt lat="48.82794" lon="-3.51635">
        <ele>24.14</ele>
        <time>2025-02-22T14:26:23.611Z</time>
      </trkpt>
      <trkpt lat="48.82775" lon="-3.51623">
        <ele>23.72</ele>
        <time>2025-02-22T14:26:23.759Z</time>
      </trkpt>
      <trkpt lat="48.82773" lon="-3.51618">
        <ele>23.3</ele>
        <time>2025-02-22T14:26:23.908Z</time>
      </trkpt>
      <trkpt lat="48.82766" lon="-3.51614">
        <ele>22.85</ele>
        <time>2025-02-22T14:26:24.060Z</time>
      </trkpt>
      <trkpt lat="48.82762" lon="-3.51618">
        <ele>22.37</ele>
        <time>2025-02-22T14:26:24.213Z</time>
      </trkpt>
      <trkpt lat="48.82739" lon="-3.51608">
        <ele>21.85</ele>
        <time>2025-02-22T14:26:24.374Z</time>
      </trkpt>
      <trkpt lat="48.82717" lon="-3.51597">
        <ele>21.37</ele>
        <time>2025-02-22T14:26:24.543Z</time>
      </trkpt>
      <trkpt lat="48.82704" lon="-3.51588">
        <ele>20.99</ele>
        <time>2025-02-22T14:26:24.717Z</time>
      </trkpt>
      <trkpt lat="48.82684" lon="-3.51555">
        <ele>20.59</ele>
        <time>2025-02-22T14:26:24.901Z</time>
      </trkpt>
      <trkpt lat="48.82663" lon="-3.51522">
        <ele>20.18</ele>
        <time>2025-02-22T14:26:25.095Z</time>
      </trkpt>
      <trkpt lat="48.82646" lon="-3.51491">
        <ele>19.78</ele>
        <time>2025-02-22T14:26:25.298Z</time>
      </trkpt>
      <trkpt lat="48.82629" lon="-3.5146">
        <ele>19.3</ele>
        <time>2025-02-22T14:26:25.510Z</time>
      </trkpt>
      <trkpt lat="48.8261" lon="-3.51434">
        <ele>18.83</ele>
        <time>2025-02-22T14:26:25.730Z</time>
      </trkpt>
      <trkpt lat="48.82603" lon="-3.51408">
        <ele>18.34</ele>
        <time>2025-02-22T14:26:25.956Z</time>
      </trkpt>
      <trkpt lat="48.82597" lon="-3.51382">
        <ele>17.93</ele>
        <time>2025-02-22T14:26:26.188Z</time>
      </trkpt>
      <trkpt lat="48.8258" lon="-3.51404">
        <ele>17.59</ele>
        <time>2025-02-22T14:26:26.428Z</time>
      </trkpt>
      <trkpt lat="48.82557" lon="-3.51423">
        <ele>17.28</ele>
        <time>2025-02-22T14:26:26.676Z</time>
      </trkpt>
      <trkpt lat="48.82535" lon="-3.51442">
        <ele>17.02</ele>
        <time>2025-02-22T14:26:26.933Z</time>
      </trkpt>
      <trkpt lat="48.82503" lon="-3.5144">
        <ele>16.59</ele>
        <time>2025-02-22T14:26:27.200Z</time>
      </trkpt>
      <trkpt lat="48.82472" lon="-3.51438">
        <ele>16.26</ele>
        <time>2025-02-22T14:26:27.478Z</time>
      </trkpt>
      <trkpt lat="48.82447" lon="-3.51429">
        <ele>16.03</ele>
        <time>2025-02-22T14:26:27.765Z</time>
      </trkpt>
      <trkpt lat="48.8244" lon="-3.51424">
        <ele>15.85</ele>
        <time>2025-02-22T14:26:28.054Z</time>
      </trkpt>
      <trkpt lat="48.82429" lon="-3.51414">
        <ele>15.73</ele>
        <time>2025-02-22T14:26:28.347Z</time>
      </trkpt>
      <trkpt lat="48.82413" lon="-3.514">
        <ele>15.57</ele>
        <time>2025-02-22T14:26:28.646Z</time>
      </trkpt>
      <trkpt lat="48.82397" lon="-3.51387">
        <ele>15.42</ele>
        <time>2025-02-22T14:26:28.952Z</time>
      </trkpt>
      <trkpt lat="48.82395" lon="-3.51384">
        <ele>15.35</ele>
        <time>2025-02-22T14:26:29.258Z</time>
      </trkpt>
      <trkpt lat="48.82395" lon="-3.51384">
        <ele>15.33</ele>
        <time>2025-02-22T14:26:29.564Z</time>
      </trkpt>
      <trkpt lat="48.82397" lon="-3.51387">
        <ele>15.36</ele>
        <time>2025-02-22T14:26:29.871Z</time>
      </trkpt>
      <trkpt lat="48.8238" lon="-3.51411">
        <ele>15.36</ele>
        <time>2025-02-22T14:26:30.186Z</time>
      </trkpt>
      <trkpt lat="48.82363" lon="-3.51436">
        <ele>15.45</ele>
        <time>2025-02-22T14:26:30.509Z</time>
      </trkpt>
      <trkpt lat="48.82352" lon="-3.51462">
        <ele>15.6</ele>
        <time>2025-02-22T14:26:30.839Z</time>
      </trkpt>
      <trkpt lat="48.82352" lon="-3.51462">
        <ele>15.78</ele>
        <time>2025-02-22T14:26:31.169Z</time>
      </trkpt>
      <trkpt lat="48.82336" lon="-3.51484">
        <ele>16.03</ele>
        <time>2025-02-22T14:26:31.506Z</time>
      </trkpt>
      <trkpt lat="48.8232" lon="-3.51507">
        <ele>16.33</ele>
        <time>2025-02-22T14:26:31.850Z</time>
      </trkpt>
      <trkpt lat="48.82309" lon="-3.51515">
        <ele>16.65</ele>
        <time>2025-02-22T14:26:32.198Z</time>
      </trkpt>
      <trkpt lat="48.82298" lon="-3.51513">
        <ele>16.99</ele>
        <time>2025-02-22T14:26:32.550Z</time>
      </trkpt>
      <trkpt lat="48.82279" lon="-3.51483">
        <ele>17.35</ele>
        <time>2025-02-22T14:26:32.911Z</time>
      </trkpt>
      <trkpt lat="48.82266" lon="-3.51463">
        <ele>17.72</ele>
        <time>2025-02-22T14:26:33.279Z</time>
      </trkpt>
      <trkpt lat="48.82253" lon="-3.51442">
        <ele>18.05</ele>
        <time>2025-02-22T14:26:33.653Z</time>
      </trkpt>
      <trkpt lat="48.82247" lon="-3.51447">
        <ele>18.34</ele>
        <time>2025-02-22T14:26:34.029Z</time>
      </trkpt>
      <trkpt lat="48.82232" lon="-3.51475">
        <ele>18.63</ele>
        <time>2025-02-22T14:26:34.413Z</time>
      </trkpt>
      <trkpt lat="48.82213" lon="-3.51451">
        <ele>18.85</ele>
        <time>2025-02-22T14:26:34.805Z</time>
      </trkpt>
      <trkpt lat="48.82189" lon="-3.51449">
        <ele>19.02</ele>
        <time>2025-02-22T14:26:35.205Z</time>
      </trkpt>
      <trkpt lat="48.82177" lon="-3.5142">
        <ele>19.08</ele>
        <time>2025-02-22T14:26:35.613Z</time>
      </trkpt>
      <trkpt lat="48.82165" lon="-3.51391">
        <ele>19.17</ele>
        <time>2025-02-22T14:26:36.028Z</time>
      </trkpt>
      <trkpt lat="48.82155" lon="-3.51359">
        <ele>19.23</ele>
        <time>2025-02-22T14:26:36.451Z</time>
      </trkpt>
      <trkpt lat="48.82153" lon="-3.51369">
        <ele>19.21</ele>
        <time>2025-02-22T14:26:36.877Z</time>
      </trkpt>
      <trkpt lat="48.82148" lon="-3.51374">
        <ele>19.14</ele>
        <time>2025-02-22T14:26:37.304Z</time>
      </trkpt>
      <trkpt lat="48.82148" lon="-3.51374">
        <ele>19.14</ele>
        <time>2025-02-22T14:26:37.731Z</time>
      </trkpt>
      <trkpt lat="48.82126" lon="-3.51399">
        <ele>19.06</ele>
        <time>2025-02-22T14:26:38.168Z</time>
      </trkpt>
      <trkpt lat="48.82103" lon="-3.51423">
        <ele>18.83</ele>
        <time>2025-02-22T14:26:38.614Z</time>
      </trkpt>
      <trkpt lat="48.8209" lon="-3.51449">
        <ele>18.55</ele>
        <time>2025-02-22T14:26:39.067Z</time>
      </trkpt>
      <trkpt lat="48.82077" lon="-3.51475">
        <ele>18.21</ele>
        <time>2025-02-22T14:26:39.527Z</time>
      </trkpt>
      <trkpt lat="48.82065" lon="-3.51479">
        <ele>17.83</ele>
        <time>2025-02-22T14:26:39.992Z</time>
      </trkpt>
      <trkpt lat="48.8205" lon="-3.51468">
        <ele>17.4</ele>
        <time>2025-02-22T14:26:40.462Z</time>
      </trkpt>
      <trkpt lat="48.82045" lon="-3.51468">
        <ele>16.98</ele>
        <time>2025-02-22T14:26:40.933Z</time>
      </trkpt>
      <trkpt lat="48.82028" lon="-3.51502">
        <ele>16.48</ele>
        <time>2025-02-22T14:26:41.414Z</time>
      </trkpt>
      <trkpt lat="48.82017" lon="-3.51505">
        <ele>15.97</ele>
        <time>2025-02-22T14:26:41.899Z</time>
      </trkpt>
      <trkpt lat="48.82017" lon="-3.51496">
        <ele>15.55</ele>
        <time>2025-02-22T14:26:42.385Z</time>
      </trkpt>
      <trkpt lat="48.82002" lon="-3.51481">
        <ele>15.12</ele>
        <time>2025-02-22T14:26:42.877Z</time>
      </trkpt>
      <trkpt lat="48.81974" lon="-3.51477">
        <ele>14.6</ele>
        <time>2025-02-22T14:26:43.379Z</time>
      </trkpt>
      <trkpt lat="48.81947" lon="-3.51473">
        <ele>14.2</ele>
        <time>2025-02-22T14:26:43.890Z</time>
      </trkpt>
      <trkpt lat="48.81919" lon="-3.5147">
        <ele>13.79</ele>
        <time>2025-02-22T14:26:44.411Z</time>
      </trkpt>
      <trkpt lat="48.81891" lon="-3.51466">
        <ele>13.44</ele>
        <time>2025-02-22T14:26:44.941Z</time>
      </trkpt>
      <trkpt lat="48.81863" lon="-3.51462">
        <ele>13.16</ele>
        <time>2025-02-22T14:26:45.480Z</time>
      </trkpt>
      <trkpt lat="48.81835" lon="-3.51458">
        <ele>13.04</ele>
        <time>2025-02-22T14:26:46.029Z</time>
      </trkpt>
      <trkpt lat="48.81807" lon="-3.51455">
        <ele>13.01</ele>
        <time>2025-02-22T14:26:46.587Z</time>
      </trkpt>
      <trkpt lat="48.81779" lon="-3.51451">
        <ele>12.89</ele>
        <time>2025-02-22T14:26:47.154Z</time>
      </trkpt>
      <trkpt lat="48.81755" lon="-3.51447">
        <ele>12.84</ele>
        <time>2025-02-22T14:26:47.730Z</time>
      </trkpt>
      <trkpt lat="48.8173" lon="-3.51442">
        <ele>12.75</ele>
        <time>2025-02-22T14:26:48.314Z</time>
      </trkpt>
      <trkpt lat="48.8173" lon="-3.51442">
        <ele>12.75</ele>
        <time>2025-02-22T14:26:48.898Z</time>
      </trkpt>
      <trkpt lat="48.8173" lon="-3.51442">
        <ele>12.76</ele>
        <time>2025-02-22T14:26:49.482Z</time>
      </trkpt>
      <trkpt lat="48.8173" lon="-3.51442">
        <ele>12.75</ele>
        <time>2025-02-22T14:26:50.066Z</time>
      </trkpt>
      <trkpt lat="48.81734" lon="-3.51481">
        <ele>12.88</ele>
        <time>2025-02-22T14:26:50.658Z</time>
      </trkpt>
      <trkpt lat="48.81716" lon="-3.515">
        <ele>12.97</ele>
        <time>2025-02-22T14:26:51.258Z</time>
      </trkpt>
      <trkpt lat="48.81697" lon="-3.51518">
        <ele>13.14</ele>
        <time>2025-02-22T14:26:51.865Z</time>
      </trkpt>
      <trkpt lat="48.81678" lon="-3.51537">
        <ele>13.32</ele>
        <time>2025-02-22T14:26:52.480Z</time>
      </trkpt>
      <trkpt lat="48.81664" lon="-3.5155">
        <ele>13.49</ele>
        <time>2025-02-22T14:26:53.100Z</time>
      </trkpt>
      <trkpt lat="48.8165" lon="-3.51563">
        <ele>13.66</ele>
        <time>2025-02-22T14:26:53.726Z</time>
      </trkpt>
      <trkpt lat="48.81625" lon="-3.51573">
        <ele>13.75</ele>
        <time>2025-02-22T14:26:54.361Z</time>
      </trkpt>
      <trkpt lat="48.81599" lon="-3.51584">
        <ele>13.84</ele>
        <time>2025-02-22T14:26:55.004Z</time>
      </trkpt>
      <trkpt lat="48.81583" lon="-3.51596">
        <ele>13.94</ele>
        <time>2025-02-22T14:26:55.653Z</time>
      </trkpt>
      <trkpt lat="48.81567" lon="-3.51608">
        <ele>14.06</ele>
        <time>2025-02-22T14:26:56.308Z</time>
      </trkpt>
      <trkpt lat="48.81547" lon="-3.51625">
        <ele>14.21</ele>
        <time>2025-02-22T14:26:56.971Z</time>
      </trkpt>
      <trkpt lat="48.81531" lon="-3.51649">
        <ele>14.37</ele>
        <time>2025-02-22T14:26:57.642Z</time>
      </trkpt>
      <trkpt lat="48.81515" lon="-3.51673">
        <ele>14.5</ele>
        <time>2025-02-22T14:26:58.320Z</time>
      </trkpt>
      <trkpt lat="48.81498" lon="-3.51698">
        <ele>14.58</ele>
        <time>2025-02-22T14:26:59.006Z</time>
      </trkpt>
      <trkpt lat="48.81485" lon="-3.51668">
        <ele>14.71</ele>
        <time>2025-02-22T14:26:59.700Z</time>
      </trkpt>
      <trkpt lat="48.81472" lon="-3.51638">
        <ele>14.9</ele>
        <time>2025-02-22T14:27:00.402Z</time>
      </trkpt>
      <trkpt lat="48.81464" lon="-3.5161">
        <ele>14.96</ele>
        <time>2025-02-22T14:27:01.110Z</time>
      </trkpt>
      <trkpt lat="48.81455" lon="-3.51582">
        <ele>15.06</ele>
        <time>2025-02-22T14:27:01.825Z</time>
      </trkpt>
      <trkpt lat="48.81447" lon="-3.51545">
        <ele>15.15</ele>
        <time>2025-02-22T14:27:02.549Z</time>
      </trkpt>
      <trkpt lat="48.81439" lon="-3.51509">
        <ele>15.26</ele>
        <time>2025-02-22T14:27:03.281Z</time>
      </trkpt>
      <trkpt lat="48.81432" lon="-3.51472">
        <ele>15.38</ele>
        <time>2025-02-22T14:27:04.022Z</time>
      </trkpt>
      <trkpt lat="48.81417" lon="-3.51432">
        <ele>15.59</ele>
        <time>2025-02-22T14:27:04.773Z</time>
      </trkpt>
      <trkpt lat="48.81404" lon="-3.51414">
        <ele>15.93</ele>
        <time>2025-02-22T14:27:05.530Z</time>
      </trkpt>
      <trkpt lat="48.81391" lon="-3.51397">
        <ele>16.31</ele>
        <time>2025-02-22T14:27:06.292Z</time>
      </trkpt>
      <trkpt lat="48.81387" lon="-3.51363">
        <ele>16.74</ele>
        <time>2025-02-22T14:27:07.062Z</time>
      </trkpt>
      <trkpt lat="48.81365" lon="-3.51337">
        <ele>17.3</ele>
        <time>2025-02-22T14:27:07.841Z</time>
      </trkpt>
      <trkpt lat="48.81345" lon="-3.51319">
        <ele>17.78</ele>
        <time>2025-02-22T14:27:08.628Z</time>
      </trkpt>
      <trkpt lat="48.81324" lon="-3.51301">
        <ele>18.41</ele>
        <time>2025-02-22T14:27:09.423Z</time>
      </trkpt>
      <trkpt lat="48.81305" lon="-3.51288">
        <ele>19.2</ele>
        <time>2025-02-22T14:27:10.225Z</time>
      </trkpt>
      <trkpt lat="48.81305" lon="-3.51288">
        <ele>19.21</ele>
        <time>2025-02-22T14:27:11.027Z</time>
      </trkpt>
      <trkpt lat="48.81305" lon="-3.51288">
        <ele>20.01</ele>
        <time>2025-02-22T14:27:11.829Z</time>
      </trkpt>
      <trkpt lat="48.81286" lon="-3.51275">
        <ele>20.99</ele>
        <time>2025-02-22T14:27:12.638Z</time>
      </trkpt>
      <trkpt lat="48.81262" lon="-3.51256">
        <ele>22.08</ele>
        <time>2025-02-22T14:27:13.456Z</time>
      </trkpt>
      <trkpt lat="48.81239" lon="-3.51223">
        <ele>23.24</ele>
        <time>2025-02-22T14:27:14.284Z</time>
      </trkpt>
      <trkpt lat="48.81217" lon="-3.51191">
        <ele>24.42</ele>
        <time>2025-02-22T14:27:15.123Z</time>
      </trkpt>
      <trkpt lat="48.81193" lon="-3.51169">
        <ele>25.76</ele>
        <time>2025-02-22T14:27:15.971Z</time>
      </trkpt>
      <trkpt lat="48.8117" lon="-3.51146">
        <ele>27.04</ele>
        <time>2025-02-22T14:27:16.828Z</time>
      </trkpt>
      <trkpt lat="48.81166" lon="-3.51135">
        <ele>28.24</ele>
        <time>2025-02-22T14:27:17.688Z</time>
      </trkpt>
      <trkpt lat="48.8115" lon="-3.51105">
        <ele>29.51</ele>
        <time>2025-02-22T14:27:18.556Z</time>
      </trkpt>
      <trkpt lat="48.81143" lon="-3.51083">
        <ele>30.8</ele>
        <time>2025-02-22T14:27:19.430Z</time>
      </trkpt>
      <trkpt lat="48.81135" lon="-3.5106">
        <ele>32.13</ele>
        <time>2025-02-22T14:27:20.309Z</time>
      </trkpt>
      <trkpt lat="48.81129" lon="-3.5105">
        <ele>33.35</ele>
        <time>2025-02-22T14:27:21.192Z</time>
      </trkpt>
      <trkpt lat="48.81108" lon="-3.51057">
        <ele>34.61</ele>
        <time>2025-02-22T14:27:22.082Z</time>
      </trkpt>
      <trkpt lat="48.81086" lon="-3.51065">
        <ele>35.8</ele>
        <time>2025-02-22T14:27:22.979Z</time>
      </trkpt>
      <trkpt lat="48.81065" lon="-3.5108">
        <ele>36.96</ele>
        <time>2025-02-22T14:27:23.884Z</time>
      </trkpt>
      <trkpt lat="48.81065" lon="-3.51103">
        <ele>37.9</ele>
        <time>2025-02-22T14:27:24.794Z</time>
      </trkpt>
      <trkpt lat="48.8106" lon="-3.51135">
        <ele>38.71</ele>
        <time>2025-02-22T14:27:25.712Z</time>
      </trkpt>
      <trkpt lat="48.81056" lon="-3.51166">
        <ele>39.23</ele>
        <time>2025-02-22T14:27:26.637Z</time>
      </trkpt>
      <trkpt lat="48.81052" lon="-3.51198">
        <ele>39.61</ele>
        <time>2025-02-22T14:27:27.569Z</time>
      </trkpt>
      <trkpt lat="48.81051" lon="-3.51225">
        <ele>39.84</ele>
        <time>2025-02-22T14:27:28.507Z</time>
      </trkpt>
      <trkpt lat="48.8105" lon="-3.51251">
        <ele>39.97</ele>
        <time>2025-02-22T14:27:29.451Z</time>
      </trkpt>
      <trkpt lat="48.81045" lon="-3.51279">
        <ele>39.91</ele>
        <time>2025-02-22T14:27:30.401Z</time>
      </trkpt>
      <trkpt lat="48.81041" lon="-3.51307">
        <ele>39.74</ele>
        <time>2025-02-22T14:27:31.357Z</time>
      </trkpt>
      <trkpt lat="48.8104" lon="-3.51334">
        <ele>39.45</ele>
        <time>2025-02-22T14:27:32.319Z</time>
      </trkpt>
      <trkpt lat="48.81039" lon="-3.51361">
        <ele>39.07</ele>
        <time>2025-02-22T14:27:33.287Z</time>
      </trkpt>
      <trkpt lat="48.81035" lon="-3.51382">
        <ele>38.65</ele>
        <time>2025-02-22T14:27:34.260Z</time>
      </trkpt>
      <trkpt lat="48.81032" lon="-3.5139">
        <ele>38.2</ele>
        <time>2025-02-22T14:27:35.235Z</time>
      </trkpt>
      <trkpt lat="48.81032" lon="-3.5139">
        <ele>38.2</ele>
        <time>2025-02-22T14:27:36.210Z</time>
      </trkpt>
      <trkpt lat="48.81022" lon="-3.51424">
        <ele>37.59</ele>
        <time>2025-02-22T14:27:37.193Z</time>
      </trkpt>
      <trkpt lat="48.81012" lon="-3.51458">
        <ele>37.06</ele>
        <time>2025-02-22T14:27:38.184Z</time>
      </trkpt>
      <trkpt lat="48.81002" lon="-3.51492">
        <ele>36.6</ele>
        <time>2025-02-22T14:27:39.183Z</time>
      </trkpt>
      <trkpt lat="48.80997" lon="-3.51527">
        <ele>36.12</ele>
        <time>2025-02-22T14:27:40.190Z</time>
      </trkpt>
      <trkpt lat="48.80992" lon="-3.51563">
        <ele>35.61</ele>
        <time>2025-02-22T14:27:41.205Z</time>
      </trkpt>
      <trkpt lat="48.80992" lon="-3.51563">
        <ele>35.12</ele>
        <time>2025-02-22T14:27:42.220Z</time>
      </trkpt>
      <trkpt lat="48.8099" lon="-3.51588">
        <ele>34.65</ele>
        <time>2025-02-22T14:27:43.241Z</time>
      </trkpt>
      <trkpt lat="48.80993" lon="-3.51625">
        <ele>34.07</ele>
        <time>2025-02-22T14:27:44.270Z</time>
      </trkpt>
      <trkpt lat="48.80996" lon="-3.51661">
        <ele>33.51</ele>
        <time>2025-02-22T14:27:45.307Z</time>
      </trkpt>
      <trkpt lat="48.80997" lon="-3.51694">
        <ele>33.07</ele>
        <time>2025-02-22T14:27:46.352Z</time>
      </trkpt>
      <trkpt lat="48.80997" lon="-3.51727">
        <ele>32.67</ele>
        <time>2025-02-22T14:27:47.404Z</time>
      </trkpt>
      <trkpt lat="48.80998" lon="-3.5176">
        <ele>32.3</ele>
        <time>2025-02-22T14:27:48.463Z</time>
      </trkpt>
      <trkpt lat="48.81005" lon="-3.51803">
        <ele>32.07</ele>
        <time>2025-02-22T14:27:49.532Z</time>
      </trkpt>
      <trkpt lat="48.81013" lon="-3.51831">
        <ele>31.72</ele>
        <time>2025-02-22T14:27:50.607Z</time>
      </trkpt>
      <trkpt lat="48.81026" lon="-3.51859">
        <ele>31.37</ele>
        <time>2025-02-22T14:27:51.690Z</time>
      </trkpt>
      <trkpt lat="48.81039" lon="-3.51887">
        <ele>30.91</ele>
        <time>2025-02-22T14:27:52.781Z</time>
      </trkpt>
      <trkpt lat="48.81052" lon="-3.51914">
        <ele>30.52</ele>
        <time>2025-02-22T14:27:53.879Z</time>
      </trkpt>
      <trkpt lat="48.81069" lon="-3.51949">
        <ele>30.07</ele>
        <time>2025-02-22T14:27:54.986Z</time>
      </trkpt>
      <trkpt lat="48.81073" lon="-3.51929">
        <ele>29.5</ele>
        <time>2025-02-22T14:27:56.098Z</time>
      </trkpt>
      <trkpt lat="48.81085" lon="-3.51909">
        <ele>28.85</ele>
        <time>2025-02-22T14:27:57.216Z</time>
      </trkpt>
      <trkpt lat="48.81085" lon="-3.51909">
        <ele>28.85</ele>
        <time>2025-02-22T14:27:58.334Z</time>
      </trkpt>
      <trkpt lat="48.81093" lon="-3.51895">
        <ele>28.26</ele>
        <time>2025-02-22T14:27:59.456Z</time>
      </trkpt>
      <trkpt lat="48.81101" lon="-3.51859">
        <ele>27.65</ele>
        <time>2025-02-22T14:28:00.586Z</time>
      </trkpt>
      <trkpt lat="48.8112" lon="-3.51861">
        <ele>27.13</ele>
        <time>2025-02-22T14:28:01.723Z</time>
      </trkpt>
      <trkpt lat="48.81146" lon="-3.51875">
        <ele>26.67</ele>
        <time>2025-02-22T14:28:02.869Z</time>
      </trkpt>
      <trkpt lat="48.81171" lon="-3.5189">
        <ele>26.35</ele>
        <time>2025-02-22T14:28:04.024Z</time>
      </trkpt>
      <trkpt lat="48.81171" lon="-3.5189">
        <ele>26.35</ele>
        <time>2025-02-22T14:28:05.179Z</time>
      </trkpt>
      <trkpt lat="48.81172" lon="-3.51891">
        <ele>26.15</ele>
        <time>2025-02-22T14:28:06.334Z</time>
      </trkpt>
      <trkpt lat="48.81196" lon="-3.51895">
        <ele>26.05</ele>
        <time>2025-02-22T14:28:07.497Z</time>
      </trkpt>
      <trkpt lat="48.81196" lon="-3.51895">
        <ele>26.05</ele>
        <time>2025-02-22T14:28:08.660Z</time>
      </trkpt>
      <trkpt lat="48.81202" lon="-3.51897">
        <ele>26.17</ele>
        <time>2025-02-22T14:28:09.825Z</time>
      </trkpt>
      <trkpt lat="48.81208" lon="-3.51904">
        <ele>26.38</ele>
        <time>2025-02-22T14:28:10.993Z</time>
      </trkpt>
      <trkpt lat="48.81213" lon="-3.51927">
        <ele>26.75</ele>
        <time>2025-02-22T14:28:12.166Z</time>
      </trkpt>
      <trkpt lat="48.81213" lon="-3.51927">
        <ele>27.15</ele>
        <time>2025-02-22T14:28:13.339Z</time>
      </trkpt>
      <trkpt lat="48.81213" lon="-3.51927">
        <ele>26.76</ele>
        <time>2025-02-22T14:28:14.512Z</time>
      </trkpt>
      <trkpt lat="48.81213" lon="-3.51927">
        <ele>27.15</ele>
        <time>2025-02-22T14:28:15.685Z</time>
      </trkpt>
      <trkpt lat="48.81186" lon="-3.51942">
        <ele>28.8</ele>
        <time>2025-02-22T14:28:16.868Z</time>
      </trkpt>
      <trkpt lat="48.81158" lon="-3.51956">
        <ele>29.51</ele>
        <time>2025-02-22T14:28:18.061Z</time>
      </trkpt>
      <trkpt lat="48.81131" lon="-3.5197">
        <ele>30.31</ele>
        <time>2025-02-22T14:28:19.263Z</time>
      </trkpt>
      <trkpt lat="48.81106" lon="-3.51974">
        <ele>31.09</ele>
        <time>2025-02-22T14:28:20.474Z</time>
      </trkpt>
      <trkpt lat="48.81082" lon="-3.51979">
        <ele>31.84</ele>
        <time>2025-02-22T14:28:21.693Z</time>
      </trkpt>
      <trkpt lat="48.81069" lon="-3.51949">
        <ele>30.07</ele>
        <time>2025-02-22T14:28:22.920Z</time>
      </trkpt>
      <trkpt lat="48.81052" lon="-3.51914">
        <ele>30.52</ele>
        <time>2025-02-22T14:28:24.156Z</time>
      </trkpt>
      <trkpt lat="48.81044" lon="-3.51897">
        <ele>33.18</ele>
        <time>2025-02-22T14:28:25.397Z</time>
      </trkpt>
      <trkpt lat="48.81044" lon="-3.51897">
        <ele>33.19</ele>
        <time>2025-02-22T14:28:26.638Z</time>
      </trkpt>
      <trkpt lat="48.81028" lon="-3.51864">
        <ele>33.48</ele>
        <time>2025-02-22T14:28:27.888Z</time>
      </trkpt>
      <trkpt lat="48.81013" lon="-3.51831">
        <ele>31.72</ele>
        <time>2025-02-22T14:28:29.147Z</time>
      </trkpt>
      <trkpt lat="48.81009" lon="-3.51817">
        <ele>33.61</ele>
        <time>2025-02-22T14:28:30.409Z</time>
      </trkpt>
      <trkpt lat="48.81009" lon="-3.51817">
        <ele>33.62</ele>
        <time>2025-02-22T14:28:31.671Z</time>
      </trkpt>
      <trkpt lat="48.81013" lon="-3.51831">
        <ele>31.72</ele>
        <time>2025-02-22T14:28:32.936Z</time>
      </trkpt>
      <trkpt lat="48.81028" lon="-3.51864">
        <ele>33.48</ele>
        <time>2025-02-22T14:28:34.210Z</time>
      </trkpt>
      <trkpt lat="48.81044" lon="-3.51897">
        <ele>33.19</ele>
        <time>2025-02-22T14:28:35.493Z</time>
      </trkpt>
      <trkpt lat="48.81044" lon="-3.51897">
        <ele>33.19</ele>
        <time>2025-02-22T14:28:36.776Z</time>
      </trkpt>
      <trkpt lat="48.81052" lon="-3.51914">
        <ele>30.52</ele>
        <time>2025-02-22T14:28:38.064Z</time>
      </trkpt>
      <trkpt lat="48.81069" lon="-3.51949">
        <ele>30.07</ele>
        <time>2025-02-22T14:28:39.361Z</time>
      </trkpt>
      <trkpt lat="48.81082" lon="-3.51979">
        <ele>31.84</ele>
        <time>2025-02-22T14:28:40.666Z</time>
      </trkpt>
      <trkpt lat="48.81106" lon="-3.51974">
        <ele>31.09</ele>
        <time>2025-02-22T14:28:41.979Z</time>
      </trkpt>
      <trkpt lat="48.81131" lon="-3.5197">
        <ele>30.31</ele>
        <time>2025-02-22T14:28:43.301Z</time>
      </trkpt>
      <trkpt lat="48.81158" lon="-3.51956">
        <ele>29.51</ele>
        <time>2025-02-22T14:28:44.632Z</time>
      </trkpt>
      <trkpt lat="48.81186" lon="-3.51942">
        <ele>28.8</ele>
        <time>2025-02-22T14:28:45.973Z</time>
      </trkpt>
      <trkpt lat="48.81213" lon="-3.51927">
        <ele>27.15</ele>
        <time>2025-02-22T14:28:47.324Z</time>
      </trkpt>
      <trkpt lat="48.81213" lon="-3.51927">
        <ele>27.15</ele>
        <time>2025-02-22T14:28:48.675Z</time>
      </trkpt>
      <trkpt lat="48.81213" lon="-3.51927">
        <ele>26.76</ele>
        <time>2025-02-22T14:28:50.026Z</time>
      </trkpt>
      <trkpt lat="48.81213" lon="-3.51927">
        <ele>27.15</ele>
        <time>2025-02-22T14:28:51.377Z</time>
      </trkpt>
      <trkpt lat="48.81213" lon="-3.51927">
        <ele>26.76</ele>
        <time>2025-02-22T14:28:52.728Z</time>
      </trkpt>
      <trkpt lat="48.81208" lon="-3.51904">
        <ele>26.38</ele>
        <time>2025-02-22T14:28:54.084Z</time>
      </trkpt>
      <trkpt lat="48.81202" lon="-3.51897">
        <ele>26.17</ele>
        <time>2025-02-22T14:28:55.442Z</time>
      </trkpt>
      <trkpt lat="48.81196" lon="-3.51895">
        <ele>26.05</ele>
        <time>2025-02-22T14:28:56.803Z</time>
      </trkpt>
      <trkpt lat="48.81196" lon="-3.51895">
        <ele>26.05</ele>
        <time>2025-02-22T14:28:58.164Z</time>
      </trkpt>
      <trkpt lat="48.81172" lon="-3.51891">
        <ele>26.15</ele>
        <time>2025-02-22T14:28:59.533Z</time>
      </trkpt>
      <trkpt lat="48.81171" lon="-3.5189">
        <ele>26.34</ele>
        <time>2025-02-22T14:29:00.902Z</time>
      </trkpt>
      <trkpt lat="48.81171" lon="-3.5189">
        <ele>26.35</ele>
        <time>2025-02-22T14:29:02.271Z</time>
      </trkpt>
      <trkpt lat="48.81146" lon="-3.51875">
        <ele>26.67</ele>
        <time>2025-02-22T14:29:03.649Z</time>
      </trkpt>
      <trkpt lat="48.8112" lon="-3.51861">
        <ele>27.13</ele>
        <time>2025-02-22T14:29:05.036Z</time>
      </trkpt>
      <trkpt lat="48.81101" lon="-3.51859">
        <ele>27.65</ele>
        <time>2025-02-22T14:29:06.429Z</time>
      </trkpt>
      <trkpt lat="48.81093" lon="-3.51895">
        <ele>28.26</ele>
        <time>2025-02-22T14:29:07.831Z</time>
      </trkpt>
      <trkpt lat="48.81085" lon="-3.51909">
        <ele>28.84</ele>
        <time>2025-02-22T14:29:09.237Z</time>
      </trkpt>
      <trkpt lat="48.81085" lon="-3.51909">
        <ele>28.85</ele>
        <time>2025-02-22T14:29:10.643Z</time>
      </trkpt>
      <trkpt lat="48.81073" lon="-3.51929">
        <ele>29.5</ele>
        <time>2025-02-22T14:29:12.055Z</time>
      </trkpt>
      <trkpt lat="48.81069" lon="-3.51949">
        <ele>30.07</ele>
        <time>2025-02-22T14:29:13.471Z</time>
      </trkpt>
      <trkpt lat="48.81052" lon="-3.51914">
        <ele>30.52</ele>
        <time>2025-02-22T14:29:14.897Z</time>
      </trkpt>
      <trkpt lat="48.81039" lon="-3.51887">
        <ele>30.91</ele>
        <time>2025-02-22T14:29:16.330Z</time>
      </trkpt>
      <trkpt lat="48.81026" lon="-3.51859">
        <ele>31.37</ele>
        <time>2025-02-22T14:29:17.771Z</time>
      </trkpt>
      <trkpt lat="48.81013" lon="-3.51831">
        <ele>31.72</ele>
        <time>2025-02-22T14:29:19.219Z</time>
      </trkpt>
      <trkpt lat="48.81005" lon="-3.51803">
        <ele>32.07</ele>
        <time>2025-02-22T14:29:20.674Z</time>
      </trkpt>
      <trkpt lat="48.80998" lon="-3.5176">
        <ele>32.3</ele>
        <time>2025-02-22T14:29:22.139Z</time>
      </trkpt>
      <trkpt lat="48.80997" lon="-3.51727">
        <ele>32.67</ele>
        <time>2025-02-22T14:29:23.611Z</time>
      </trkpt>
      <trkpt lat="48.80997" lon="-3.51694">
        <ele>33.07</ele>
        <time>2025-02-22T14:29:25.090Z</time>
      </trkpt>
      <trkpt lat="48.80996" lon="-3.51661">
        <ele>33.51</ele>
        <time>2025-02-22T14:29:26.577Z</time>
      </trkpt>
      <trkpt lat="48.80993" lon="-3.51625">
        <ele>34.07</ele>
        <time>2025-02-22T14:29:28.072Z</time>
      </trkpt>
      <trkpt lat="48.8099" lon="-3.51588">
        <ele>34.65</ele>
        <time>2025-02-22T14:29:29.575Z</time>
      </trkpt>
      <trkpt lat="48.80992" lon="-3.51563">
        <ele>35.12</ele>
        <time>2025-02-22T14:29:31.084Z</time>
      </trkpt>
      <trkpt lat="48.80992" lon="-3.51563">
        <ele>35.61</ele>
        <time>2025-02-22T14:29:32.593Z</time>
      </trkpt>
      <trkpt lat="48.80997" lon="-3.51527">
        <ele>36.12</ele>
        <time>2025-02-22T14:29:34.110Z</time>
      </trkpt>
      <trkpt lat="48.81002" lon="-3.51492">
        <ele>36.6</ele>
        <time>2025-02-22T14:29:35.635Z</time>
      </trkpt>
      <trkpt lat="48.81012" lon="-3.51458">
        <ele>37.06</ele>
        <time>2025-02-22T14:29:37.168Z</time>
      </trkpt>
      <trkpt lat="48.81022" lon="-3.51424">
        <ele>37.59</ele>
        <time>2025-02-22T14:29:38.709Z</time>
      </trkpt>
      <trkpt lat="48.81032" lon="-3.5139">
        <ele>38.19</ele>
        <time>2025-02-22T14:29:40.258Z</time>
      </trkpt>
      <trkpt lat="48.81032" lon="-3.5139">
        <ele>38.2</ele>
        <time>2025-02-22T14:29:41.807Z</time>
      </trkpt>
      <trkpt lat="48.81035" lon="-3.51382">
        <ele>38.65</ele>
        <time>2025-02-22T14:29:43.358Z</time>
      </trkpt>
      <trkpt lat="48.81039" lon="-3.51361">
        <ele>39.07</ele>
        <time>2025-02-22T14:29:44.914Z</time>
      </trkpt>
      <trkpt lat="48.8104" lon="-3.51334">
        <ele>39.45</ele>
        <time>2025-02-22T14:29:46.476Z</time>
      </trkpt>
      <trkpt lat="48.81041" lon="-3.51307">
        <ele>39.74</ele>
        <time>2025-02-22T14:29:48.044Z</time>
      </trkpt>
      <trkpt lat="48.81045" lon="-3.51279">
        <ele>39.91</ele>
        <time>2025-02-22T14:29:49.618Z</time>
      </trkpt>
      <trkpt lat="48.8105" lon="-3.51251">
        <ele>39.97</ele>
        <time>2025-02-22T14:29:51.198Z</time>
      </trkpt>
      <trkpt lat="48.81051" lon="-3.51225">
        <ele>39.84</ele>
        <time>2025-02-22T14:29:52.784Z</time>
      </trkpt>
      <trkpt lat="48.81052" lon="-3.51198">
        <ele>39.61</ele>
        <time>2025-02-22T14:29:54.376Z</time>
      </trkpt>
      <trkpt lat="48.81056" lon="-3.51166">
        <ele>39.23</ele>
        <time>2025-02-22T14:29:55.975Z</time>
      </trkpt>
      <trkpt lat="48.8106" lon="-3.51135">
        <ele>38.71</ele>
        <time>2025-02-22T14:29:57.581Z</time>
      </trkpt>
      <trkpt lat="48.81065" lon="-3.51103">
        <ele>37.9</ele>
        <time>2025-02-22T14:29:59.195Z</time>
      </trkpt>
      <trkpt lat="48.81065" lon="-3.5108">
        <ele>36.96</ele>
        <time>2025-02-22T14:30:00.814Z</time>
      </trkpt>
      <trkpt lat="48.81086" lon="-3.51065">
        <ele>35.8</ele>
        <time>2025-02-22T14:30:02.441Z</time>
      </trkpt>
      <trkpt lat="48.81108" lon="-3.51057">
        <ele>34.61</ele>
        <time>2025-02-22T14:30:04.075Z</time>
      </trkpt>
      <trkpt lat="48.81129" lon="-3.5105">
        <ele>33.35</ele>
        <time>2025-02-22T14:30:05.716Z</time>
      </trkpt>
      <trkpt lat="48.81135" lon="-3.5106">
        <ele>32.13</ele>
        <time>2025-02-22T14:30:07.360Z</time>
      </trkpt>
      <trkpt lat="48.81143" lon="-3.51083">
        <ele>30.8</ele>
        <time>2025-02-22T14:30:09.010Z</time>
      </trkpt>
      <trkpt lat="48.8115" lon="-3.51105">
        <ele>29.51</ele>
        <time>2025-02-22T14:30:10.666Z</time>
      </trkpt>
      <trkpt lat="48.81166" lon="-3.51135">
        <ele>28.24</ele>
        <time>2025-02-22T14:30:12.330Z</time>
      </trkpt>
      <trkpt lat="48.8117" lon="-3.51146">
        <ele>27.04</ele>
        <time>2025-02-22T14:30:13.997Z</time>
      </trkpt>
      <trkpt lat="48.81193" lon="-3.51169">
        <ele>25.76</ele>
        <time>2025-02-22T14:30:15.673Z</time>
      </trkpt>
      <trkpt lat="48.81217" lon="-3.51191">
        <ele>24.42</ele>
        <time>2025-02-22T14:30:17.358Z</time>
      </trkpt>
      <trkpt lat="48.81239" lon="-3.51223">
        <ele>23.24</ele>
        <time>2025-02-22T14:30:19.054Z</time>
      </trkpt>
      <trkpt lat="48.81262" lon="-3.51256">
        <ele>22.08</ele>
        <time>2025-02-22T14:30:20.760Z</time>
      </trkpt>
      <trkpt lat="48.81286" lon="-3.51275">
        <ele>20.99</ele>
        <time>2025-02-22T14:30:22.475Z</time>
      </trkpt>
      <trkpt lat="48.81305" lon="-3.51288">
        <ele>20.01</ele>
        <time>2025-02-22T14:30:24.197Z</time>
      </trkpt>
      <trkpt lat="48.81305" lon="-3.51288">
        <ele>20.01</ele>
        <time>2025-02-22T14:30:25.919Z</time>
      </trkpt>
      <trkpt lat="48.81305" lon="-3.51288">
        <ele>19.21</ele>
        <time>2025-02-22T14:30:27.641Z</time>
      </trkpt>
      <trkpt lat="48.81324" lon="-3.51301">
        <ele>18.41</ele>
        <time>2025-02-22T14:30:29.370Z</time>
      </trkpt>
      <trkpt lat="48.81345" lon="-3.51319">
        <ele>17.78</ele>
        <time>2025-02-22T14:30:31.107Z</time>
      </trkpt>
      <trkpt lat="48.81365" lon="-3.51337">
        <ele>17.3</ele>
        <time>2025-02-22T14:30:32.852Z</time>
      </trkpt>
      <trkpt lat="48.81387" lon="-3.51363">
        <ele>16.74</ele>
        <time>2025-02-22T14:30:34.606Z</time>
      </trkpt>
      <trkpt lat="48.81391" lon="-3.51397">
        <ele>16.31</ele>
        <time>2025-02-22T14:30:36.368Z</time>
      </trkpt>
      <trkpt lat="48.81404" lon="-3.51414">
        <ele>15.93</ele>
        <time>2025-02-22T14:30:38.135Z</time>
      </trkpt>
      <trkpt lat="48.81417" lon="-3.51432">
        <ele>15.59</ele>
        <time>2025-02-22T14:30:39.908Z</time>
      </trkpt>
      <trkpt lat="48.81432" lon="-3.51472">
        <ele>15.38</ele>
        <time>2025-02-22T14:30:41.691Z</time>
      </trkpt>
      <trkpt lat="48.81439" lon="-3.51509">
        <ele>15.26</ele>
        <time>2025-02-22T14:30:43.483Z</time>
      </trkpt>
      <trkpt lat="48.81447" lon="-3.51545">
        <ele>15.15</ele>
        <time>2025-02-22T14:30:45.283Z</time>
      </trkpt>
      <trkpt lat="48.81455" lon="-3.51582">
        <ele>15.06</ele>
        <time>2025-02-22T14:30:47.092Z</time>
      </trkpt>
      <trkpt lat="48.81464" lon="-3.5161">
        <ele>14.96</ele>
        <time>2025-02-22T14:30:48.907Z</time>
      </trkpt>
      <trkpt lat="48.81472" lon="-3.51638">
        <ele>14.9</ele>
        <time>2025-02-22T14:30:50.729Z</time>
      </trkpt>
      <trkpt lat="48.81485" lon="-3.51668">
        <ele>14.71</ele>
        <time>2025-02-22T14:30:52.559Z</time>
      </trkpt>
      <trkpt lat="48.81498" lon="-3.51698">
        <ele>14.58</ele>
        <time>2025-02-22T14:30:54.397Z</time>
      </trkpt>
      <trkpt lat="48.81515" lon="-3.51673">
        <ele>14.5</ele>
        <time>2025-02-22T14:30:56.243Z</time>
      </trkpt>
      <trkpt lat="48.81531" lon="-3.51649">
        <ele>14.37</ele>
        <time>2025-02-22T14:30:58.096Z</time>
      </trkpt>
      <trkpt lat="48.81547" lon="-3.51625">
        <ele>14.21</ele>
        <time>2025-02-22T14:30:59.957Z</time>
      </trkpt>
      <trkpt lat="48.81567" lon="-3.51608">
        <ele>14.06</ele>
        <time>2025-02-22T14:31:01.826Z</time>
      </trkpt>
      <trkpt lat="48.81583" lon="-3.51596">
        <ele>13.94</ele>
        <time>2025-02-22T14:31:03.701Z</time>
      </trkpt>
      <trkpt lat="48.81599" lon="-3.51584">
        <ele>13.84</ele>
        <time>2025-02-22T14:31:05.581Z</time>
      </trkpt>
      <trkpt lat="48.81625" lon="-3.51573">
        <ele>13.75</ele>
        <time>2025-02-22T14:31:07.470Z</time>
      </trkpt>
      <trkpt lat="48.8165" lon="-3.51563">
        <ele>13.66</ele>
        <time>2025-02-22T14:31:09.368Z</time>
      </trkpt>
      <trkpt lat="48.81664" lon="-3.5155">
        <ele>13.49</ele>
        <time>2025-02-22T14:31:11.272Z</time>
      </trkpt>
      <trkpt lat="48.81678" lon="-3.51537">
        <ele>13.32</ele>
        <time>2025-02-22T14:31:13.181Z</time>
      </trkpt>
      <trkpt lat="48.81697" lon="-3.51518">
        <ele>13.14</ele>
        <time>2025-02-22T14:31:15.098Z</time>
      </trkpt>
      <trkpt lat="48.81716" lon="-3.515">
        <ele>12.97</ele>
        <time>2025-02-22T14:31:17.022Z</time>
      </trkpt>
      <trkpt lat="48.81734" lon="-3.51481">
        <ele>12.88</ele>
        <time>2025-02-22T14:31:18.954Z</time>
      </trkpt>
      <trkpt lat="48.8173" lon="-3.51442">
        <ele>12.75</ele>
        <time>2025-02-22T14:31:20.894Z</time>
      </trkpt>
      <trkpt lat="48.8173" lon="-3.51442">
        <ele>12.75</ele>
        <time>2025-02-22T14:31:22.834Z</time>
      </trkpt>
      <trkpt lat="48.8173" lon="-3.51442">
        <ele>12.76</ele>
        <time>2025-02-22T14:31:24.774Z</time>
      </trkpt>
      <trkpt lat="48.8173" lon="-3.51442">
        <ele>12.75</ele>
        <time>2025-02-22T14:31:26.714Z</time>
      </trkpt>
      <trkpt lat="48.81755" lon="-3.51447">
        <ele>12.84</ele>
        <time>2025-02-22T14:31:28.662Z</time>
      </trkpt>
      <trkpt lat="48.81779" lon="-3.51451">
        <ele>12.89</ele>
        <time>2025-02-22T14:31:30.619Z</time>
      </trkpt>
      <trkpt lat="48.81807" lon="-3.51455">
        <ele>13.01</ele>
        <time>2025-02-22T14:31:32.585Z</time>
      </trkpt>
      <trkpt lat="48.81835" lon="-3.51458">
        <ele>13.04</ele>
        <time>2025-02-22T14:31:34.560Z</time>
      </trkpt>
      <trkpt lat="48.81863" lon="-3.51462">
        <ele>13.16</ele>
        <time>2025-02-22T14:31:36.545Z</time>
      </trkpt>
      <trkpt lat="48.81891" lon="-3.51466">
        <ele>13.44</ele>
        <time>2025-02-22T14:31:38.539Z</time>
      </trkpt>
      <trkpt lat="48.81919" lon="-3.5147">
        <ele>13.79</ele>
        <time>2025-02-22T14:31:40.542Z</time>
      </trkpt>
      <trkpt lat="48.81947" lon="-3.51473">
        <ele>14.2</ele>
        <time>2025-02-22T14:31:42.555Z</time>
      </trkpt>
      <trkpt lat="48.81974" lon="-3.51477">
        <ele>14.6</ele>
        <time>2025-02-22T14:31:44.577Z</time>
      </trkpt>
      <trkpt lat="48.82002" lon="-3.51481">
        <ele>15.12</ele>
        <time>2025-02-22T14:31:46.608Z</time>
      </trkpt>
      <trkpt lat="48.82017" lon="-3.51496">
        <ele>15.55</ele>
        <time>2025-02-22T14:31:48.645Z</time>
      </trkpt>
      <trkpt lat="48.82017" lon="-3.51505">
        <ele>15.97</ele>
        <time>2025-02-22T14:31:50.684Z</time>
      </trkpt>
      <trkpt lat="48.82028" lon="-3.51502">
        <ele>16.48</ele>
        <time>2025-02-22T14:31:52.727Z</time>
      </trkpt>
      <trkpt lat="48.82045" lon="-3.51468">
        <ele>16.98</ele>
        <time>2025-02-22T14:31:54.779Z</time>
      </trkpt>
      <trkpt lat="48.8205" lon="-3.51468">
        <ele>17.4</ele>
        <time>2025-02-22T14:31:56.833Z</time>
      </trkpt>
      <trkpt lat="48.82065" lon="-3.51479">
        <ele>17.83</ele>
        <time>2025-02-22T14:31:58.892Z</time>
      </trkpt>
      <trkpt lat="48.82077" lon="-3.51475">
        <ele>18.21</ele>
        <time>2025-02-22T14:32:00.956Z</time>
      </trkpt>
      <trkpt lat="48.8209" lon="-3.51449">
        <ele>18.55</ele>
        <time>2025-02-22T14:32:03.027Z</time>
      </trkpt>
      <trkpt lat="48.82103" lon="-3.51423">
        <ele>18.83</ele>
        <time>2025-02-22T14:32:05.105Z</time>
      </trkpt>
      <trkpt lat="48.82126" lon="-3.51399">
        <ele>19.06</ele>
        <time>2025-02-22T14:32:07.192Z</time>
      </trkpt>
      <trkpt lat="48.82148" lon="-3.51374">
        <ele>19.13</ele>
        <time>2025-02-22T14:32:09.288Z</time>
      </trkpt>
      <trkpt lat="48.82148" lon="-3.51374">
        <ele>19.14</ele>
        <time>2025-02-22T14:32:11.384Z</time>
      </trkpt>
      <trkpt lat="48.82153" lon="-3.51369">
        <ele>19.21</ele>
        <time>2025-02-22T14:32:13.482Z</time>
      </trkpt>
      <trkpt lat="48.82155" lon="-3.51359">
        <ele>19.23</ele>
        <time>2025-02-22T14:32:15.583Z</time>
      </trkpt>
      <trkpt lat="48.82165" lon="-3.51391">
        <ele>19.17</ele>
        <time>2025-02-22T14:32:17.692Z</time>
      </trkpt>
      <trkpt lat="48.82177" lon="-3.5142">
        <ele>19.08</ele>
        <time>2025-02-22T14:32:19.808Z</time>
      </trkpt>
      <trkpt lat="48.82189" lon="-3.51449">
        <ele>19.02</ele>
        <time>2025-02-22T14:32:21.932Z</time>
      </trkpt>
      <trkpt lat="48.82213" lon="-3.51451">
        <ele>18.85</ele>
        <time>2025-02-22T14:32:24.064Z</time>
      </trkpt>
      <trkpt lat="48.82232" lon="-3.51475">
        <ele>18.63</ele>
        <time>2025-02-22T14:32:26.204Z</time>
      </trkpt>
      <trkpt lat="48.82247" lon="-3.51447">
        <ele>18.34</ele>
        <time>2025-02-22T14:32:28.352Z</time>
      </trkpt>
      <trkpt lat="48.82253" lon="-3.51442">
        <ele>18.05</ele>
        <time>2025-02-22T14:32:30.502Z</time>
      </trkpt>
      <trkpt lat="48.82266" lon="-3.51463">
        <ele>17.72</ele>
        <time>2025-02-22T14:32:32.658Z</time>
      </trkpt>
      <trkpt lat="48.82279" lon="-3.51483">
        <ele>17.35</ele>
        <time>2025-02-22T14:32:34.821Z</time>
      </trkpt>
      <trkpt lat="48.82298" lon="-3.51513">
        <ele>16.99</ele>
        <time>2025-02-22T14:32:36.993Z</time>
      </trkpt>
      <trkpt lat="48.82309" lon="-3.51515">
        <ele>16.65</ele>
        <time>2025-02-22T14:32:39.168Z</time>
      </trkpt>
      <trkpt lat="48.8232" lon="-3.51507">
        <ele>16.33</ele>
        <time>2025-02-22T14:32:41.347Z</time>
      </trkpt>
      <trkpt lat="48.82336" lon="-3.51484">
        <ele>16.03</ele>
        <time>2025-02-22T14:32:43.534Z</time>
      </trkpt>
      <trkpt lat="48.82352" lon="-3.51462">
        <ele>15.78</ele>
        <time>2025-02-22T14:32:45.728Z</time>
      </trkpt>
      <trkpt lat="48.82352" lon="-3.51462">
        <ele>15.6</ele>
        <time>2025-02-22T14:32:47.922Z</time>
      </trkpt>
      <trkpt lat="48.82363" lon="-3.51436">
        <ele>15.45</ele>
        <time>2025-02-22T14:32:50.123Z</time>
      </trkpt>
      <trkpt lat="48.8238" lon="-3.51411">
        <ele>15.36</ele>
        <time>2025-02-22T14:32:52.332Z</time>
      </trkpt>
      <trkpt lat="48.82397" lon="-3.51387">
        <ele>15.36</ele>
        <time>2025-02-22T14:32:54.549Z</time>
      </trkpt>
      <trkpt lat="48.82395" lon="-3.51384">
        <ele>15.33</ele>
        <time>2025-02-22T14:32:56.766Z</time>
      </trkpt>
      <trkpt lat="48.82395" lon="-3.51384">
        <ele>15.33</ele>
        <time>2025-02-22T14:32:58.983Z</time>
      </trkpt>
      <trkpt lat="48.82395" lon="-3.51384">
        <ele>15.35</ele>
        <time>2025-02-22T14:33:01.200Z</time>
      </trkpt>
      <trkpt lat="48.82397" lon="-3.51387">
        <ele>15.42</ele>
        <time>2025-02-22T14:33:03.418Z</time>
      </trkpt>
      <trkpt lat="48.82413" lon="-3.514">
        <ele>15.57</ele>
        <time>2025-02-22T14:33:05.643Z</time>
      </trkpt>
      <trkpt lat="48.82429" lon="-3.51414">
        <ele>15.73</ele>
        <time>2025-02-22T14:33:07.874Z</time>
      </trkpt>
      <trkpt lat="48.8244" lon="-3.51424">
        <ele>15.84</ele>
        <time>2025-02-22T14:33:10.109Z</time>
      </trkpt>
      <trkpt lat="48.8244" lon="-3.51424">
        <ele>15.85</ele>
        <time>2025-02-22T14:33:12.344Z</time>
      </trkpt>
      <trkpt lat="48.82447" lon="-3.51429">
        <ele>16.03</ele>
        <time>2025-02-22T14:33:14.581Z</time>
      </trkpt>
      <trkpt lat="48.82472" lon="-3.51438">
        <ele>16.26</ele>
        <time>2025-02-22T14:33:16.827Z</time>
      </trkpt>
      <trkpt lat="48.82503" lon="-3.5144">
        <ele>16.59</ele>
        <time>2025-02-22T14:33:19.084Z</time>
      </trkpt>
      <trkpt lat="48.82535" lon="-3.51442">
        <ele>17.02</ele>
        <time>2025-02-22T14:33:21.351Z</time>
      </trkpt>
      <trkpt lat="48.82557" lon="-3.51423">
        <ele>17.28</ele>
        <time>2025-02-22T14:33:23.627Z</time>
      </trkpt>
      <trkpt lat="48.8258" lon="-3.51404">
        <ele>17.59</ele>
        <time>2025-02-22T14:33:25.911Z</time>
      </trkpt>
      <trkpt lat="48.82597" lon="-3.51382">
        <ele>17.93</ele>
        <time>2025-02-22T14:33:28.203Z</time>
      </trkpt>
      <trkpt lat="48.82603" lon="-3.51408">
        <ele>18.34</ele>
        <time>2025-02-22T14:33:30.501Z</time>
      </trkpt>
      <trkpt lat="48.8261" lon="-3.51434">
        <ele>18.83</ele>
        <time>2025-02-22T14:33:32.805Z</time>
      </trkpt>
      <trkpt lat="48.82629" lon="-3.5146">
        <ele>19.3</ele>
        <time>2025-02-22T14:33:35.117Z</time>
      </trkpt>
      <trkpt lat="48.82646" lon="-3.51491">
        <ele>19.78</ele>
        <time>2025-02-22T14:33:37.438Z</time>
      </trkpt>
      <trkpt lat="48.82663" lon="-3.51522">
        <ele>20.18</ele>
        <time>2025-02-22T14:33:39.768Z</time>
      </trkpt>
      <trkpt lat="48.82684" lon="-3.51555">
        <ele>20.59</ele>
        <time>2025-02-22T14:33:42.108Z</time>
      </trkpt>
      <trkpt lat="48.82704" lon="-3.51588">
        <ele>20.99</ele>
        <time>2025-02-22T14:33:44.458Z</time>
      </trkpt>
      <trkpt lat="48.82717" lon="-3.51597">
        <ele>21.37</ele>
        <time>2025-02-22T14:33:46.813Z</time>
      </trkpt>
      <trkpt lat="48.82739" lon="-3.51608">
        <ele>21.85</ele>
        <time>2025-02-22T14:33:49.176Z</time>
      </trkpt>
      <trkpt lat="48.82762" lon="-3.51618">
        <ele>22.37</ele>
        <time>2025-02-22T14:33:51.547Z</time>
      </trkpt>
      <trkpt lat="48.82766" lon="-3.51614">
        <ele>22.84</ele>
        <time>2025-02-22T14:33:53.919Z</time>
      </trkpt>
      <trkpt lat="48.82766" lon="-3.51614">
        <ele>22.85</ele>
        <time>2025-02-22T14:33:56.291Z</time>
      </trkpt>
      <trkpt lat="48.82773" lon="-3.51618">
        <ele>23.3</ele>
        <time>2025-02-22T14:33:58.666Z</time>
      </trkpt>
      <trkpt lat="48.82775" lon="-3.51623">
        <ele>23.72</ele>
        <time>2025-02-22T14:34:01.042Z</time>
      </trkpt>
      <trkpt lat="48.82794" lon="-3.51635">
        <ele>24.14</ele>
        <time>2025-02-22T14:34:03.425Z</time>
      </trkpt>
      <trkpt lat="48.8282" lon="-3.51659">
        <ele>24.58</ele>
        <time>2025-02-22T14:34:05.818Z</time>
      </trkpt>
      <trkpt lat="48.82833" lon="-3.51681">
        <ele>24.78</ele>
        <time>2025-02-22T14:34:08.217Z</time>
      </trkpt>
      <trkpt lat="48.82844" lon="-3.51705">
        <ele>24.81</ele>
        <time>2025-02-22T14:34:10.623Z</time>
      </trkpt>
      <trkpt lat="48.82855" lon="-3.5173">
        <ele>24.53</ele>
        <time>2025-02-22T14:34:13.035Z</time>
      </trkpt>
      <trkpt lat="48.82855" lon="-3.5173">
        <ele>24.53</ele>
        <time>2025-02-22T14:34:15.448Z</time>
      </trkpt>
      <trkpt lat="48.82861" lon="-3.51743">
        <ele>24.01</ele>
        <time>2025-02-22T14:34:17.864Z</time>
      </trkpt>
      <trkpt lat="48.82868" lon="-3.51781">
        <ele>23.18</ele>
        <time>2025-02-22T14:34:20.289Z</time>
      </trkpt>
      <trkpt lat="48.82875" lon="-3.51819">
        <ele>21.94</ele>
        <time>2025-02-22T14:34:22.722Z</time>
      </trkpt>
      <trkpt lat="48.82883" lon="-3.51857">
        <ele>20.66</ele>
        <time>2025-02-22T14:34:25.164Z</time>
      </trkpt>
      <trkpt lat="48.8289" lon="-3.51895">
        <ele>19.34</ele>
        <time>2025-02-22T14:34:27.615Z</time>
      </trkpt>
      <trkpt lat="48.82897" lon="-3.51934">
        <ele>18.05</ele>
        <time>2025-02-22T14:34:30.075Z</time>
      </trkpt>
      <trkpt lat="48.82897" lon="-3.51944">
        <ele>16.98</ele>
        <time>2025-02-22T14:34:32.537Z</time>
      </trkpt>
      <trkpt lat="48.829" lon="-3.51977">
        <ele>15.89</ele>
        <time>2025-02-22T14:34:35.006Z</time>
      </trkpt>
      <trkpt lat="48.82903" lon="-3.52009">
        <ele>14.86</ele>
        <time>2025-02-22T14:34:37.483Z</time>
      </trkpt>
      <trkpt lat="48.82903" lon="-3.5201">
        <ele>14.86</ele>
        <time>2025-02-22T14:34:39.960Z</time>
      </trkpt>
      <trkpt lat="48.82906" lon="-3.52035">
        <ele>14</ele>
        <time>2025-02-22T14:34:42.442Z</time>
      </trkpt>
      <trkpt lat="48.82908" lon="-3.5206">
        <ele>13.17</ele>
        <time>2025-02-22T14:34:44.930Z</time>
      </trkpt>
      <trkpt lat="48.8291" lon="-3.52095">
        <ele>12.27</ele>
        <time>2025-02-22T14:34:47.426Z</time>
      </trkpt>
      <trkpt lat="48.82912" lon="-3.5213">
        <ele>11.34</ele>
        <time>2025-02-22T14:34:49.929Z</time>
      </trkpt>
      <trkpt lat="48.82914" lon="-3.52165">
        <ele>10.61</ele>
        <time>2025-02-22T14:34:52.440Z</time>
      </trkpt>
      <trkpt lat="48.82895" lon="-3.52162">
        <ele>9.99</ele>
        <time>2025-02-22T14:34:54.958Z</time>
      </trkpt>
      <trkpt lat="48.82876" lon="-3.52158">
        <ele>9.38</ele>
        <time>2025-02-22T14:34:57.482Z</time>
      </trkpt>
    </trkseg>
  </trk>
  <trk>
    <name><![CDATA[CàP]]></name>
    <extensions>
      <line xmlns="http://www.topografix.com/GPX/gpx_style/0/2">
        <color>c72675</color>
        <opacity>1</opacity>
        <width>4</width>
          <extensions>
            <sens>1</sens>
          </extensions>
      </line>
    </extensions>
    <trkseg>
      <trkpt lat="48.82863" lon="-3.52158">
        <ele>6.1999998092651</ele>
        <time>2016-02-04T11:34:05.000Z</time>
        <extensions>
          <gpxtpx:TrackPointExtension xmlns:gpxtpx="http://www.garmin.com/xmlschemas/TrackPointExtension/v1">
            <gpxtpx:hr>85</gpxtpx:hr>
          </gpxtpx:TrackPointExtension>
        </extensions>
      </trkpt>
      <trkpt lat="48.82861" lon="-3.52157">
        <ele>6</ele>
        <time>2016-02-04T11:34:06.000Z</time>
        <extensions>
          <gpxtpx:TrackPointExtension xmlns:gpxtpx="http://www.garmin.com/xmlschemas/TrackPointExtension/v1">
            <gpxtpx:hr>85</gpxtpx:hr>
          </gpxtpx:TrackPointExtension>
        </extensions>
      </trkpt>
      <trkpt lat="48.82847" lon="-3.52154">
        <ele>6</ele>
        <time>2016-02-04T11:34:11.000Z</time>
        <extensions>
          <gpxtpx:TrackPointExtension xmlns:gpxtpx="http://www.garmin.com/xmlschemas/TrackPointExtension/v1">
            <gpxtpx:hr>88</gpxtpx:hr>
          </gpxtpx:TrackPointExtension>
        </extensions>
      </trkpt>
      <trkpt lat="48.82836" lon="-3.52152">
        <ele>6</ele>
        <time>2016-02-04T11:34:15.000Z</time>
        <extensions>
          <gpxtpx:TrackPointExtension xmlns:gpxtpx="http://www.garmin.com/xmlschemas/TrackPointExtension/v1">
            <gpxtpx:hr>91</gpxtpx:hr>
          </gpxtpx:TrackPointExtension>
        </extensions>
      </trkpt>
      <trkpt lat="48.82831" lon="-3.52152">
        <ele>6</ele>
        <time>2016-02-04T11:34:17.000Z</time>
        <extensions>
          <gpxtpx:TrackPointExtension xmlns:gpxtpx="http://www.garmin.com/xmlschemas/TrackPointExtension/v1">
            <gpxtpx:hr>94</gpxtpx:hr>
          </gpxtpx:TrackPointExtension>
        </extensions>
      </trkpt>
      <trkpt lat="48.82827" lon="-3.52155">
        <ele>6</ele>
        <time>2016-02-04T11:34:19.000Z</time>
        <extensions>
          <gpxtpx:TrackPointExtension xmlns:gpxtpx="http://www.garmin.com/xmlschemas/TrackPointExtension/v1">
            <gpxtpx:hr>96</gpxtpx:hr>
          </gpxtpx:TrackPointExtension>
        </extensions>
      </trkpt>
      <trkpt lat="48.82826" lon="-3.52166">
        <ele>5.8000001907349</ele>
        <time>2016-02-04T11:34:23.000Z</time>
        <extensions>
          <gpxtpx:TrackPointExtension xmlns:gpxtpx="http://www.garmin.com/xmlschemas/TrackPointExtension/v1">
            <gpxtpx:hr>99</gpxtpx:hr>
          </gpxtpx:TrackPointExtension>
        </extensions>
      </trkpt>
      <trkpt lat="48.82827" lon="-3.52181">
        <ele>6</ele>
        <time>2016-02-04T11:34:27.000Z</time>
        <extensions>
          <gpxtpx:TrackPointExtension xmlns:gpxtpx="http://www.garmin.com/xmlschemas/TrackPointExtension/v1">
            <gpxtpx:hr>102</gpxtpx:hr>
          </gpxtpx:TrackPointExtension>
        </extensions>
      </trkpt>
      <trkpt lat="48.82828" lon="-3.52185">
        <ele>5.1999998092651</ele>
        <time>2016-02-04T11:34:28.000Z</time>
        <extensions>
          <gpxtpx:TrackPointExtension xmlns:gpxtpx="http://www.garmin.com/xmlschemas/TrackPointExtension/v1">
            <gpxtpx:hr>102</gpxtpx:hr>
          </gpxtpx:TrackPointExtension>
        </extensions>
      </trkpt>
      <trkpt lat="48.8283" lon="-3.522">
        <ele>5.5999999046326</ele>
        <time>2016-02-04T11:34:32.000Z</time>
        <extensions>
          <gpxtpx:TrackPointExtension xmlns:gpxtpx="http://www.garmin.com/xmlschemas/TrackPointExtension/v1">
            <gpxtpx:hr>105</gpxtpx:hr>
          </gpxtpx:TrackPointExtension>
        </extensions>
      </trkpt>
      <trkpt lat="48.8283" lon="-3.52226">
        <ele>6</ele>
        <time>2016-02-04T11:34:38.000Z</time>
        <extensions>
          <gpxtpx:TrackPointExtension xmlns:gpxtpx="http://www.garmin.com/xmlschemas/TrackPointExtension/v1">
            <gpxtpx:hr>108</gpxtpx:hr>
          </gpxtpx:TrackPointExtension>
        </extensions>
      </trkpt>
      <trkpt lat="48.82832" lon="-3.52254">
        <ele>6.5999999046326</ele>
        <time>2016-02-04T11:34:44.000Z</time>
        <extensions>
          <gpxtpx:TrackPointExtension xmlns:gpxtpx="http://www.garmin.com/xmlschemas/TrackPointExtension/v1">
            <gpxtpx:hr>111</gpxtpx:hr>
          </gpxtpx:TrackPointExtension>
        </extensions>
      </trkpt>
      <trkpt lat="48.82834" lon="-3.52267">
        <ele>5</ele>
        <time>2016-02-04T11:34:47.000Z</time>
        <extensions>
          <gpxtpx:TrackPointExtension xmlns:gpxtpx="http://www.garmin.com/xmlschemas/TrackPointExtension/v1">
            <gpxtpx:hr>112</gpxtpx:hr>
          </gpxtpx:TrackPointExtension>
        </extensions>
      </trkpt>
      <trkpt lat="48.82838" lon="-3.52284">
        <ele>4.8000001907349</ele>
        <time>2016-02-04T11:34:51.000Z</time>
        <extensions>
          <gpxtpx:TrackPointExtension xmlns:gpxtpx="http://www.garmin.com/xmlschemas/TrackPointExtension/v1">
            <gpxtpx:hr>115</gpxtpx:hr>
          </gpxtpx:TrackPointExtension>
        </extensions>
      </trkpt>
      <trkpt lat="48.82847" lon="-3.523">
        <ele>4.8000001907349</ele>
        <time>2016-02-04T11:34:56.000Z</time>
        <extensions>
          <gpxtpx:TrackPointExtension xmlns:gpxtpx="http://www.garmin.com/xmlschemas/TrackPointExtension/v1">
            <gpxtpx:hr>118</gpxtpx:hr>
          </gpxtpx:TrackPointExtension>
        </extensions>
      </trkpt>
      <trkpt lat="48.82865" lon="-3.52306">
        <ele>6</ele>
        <time>2016-02-04T11:35:03.000Z</time>
        <extensions>
          <gpxtpx:TrackPointExtension xmlns:gpxtpx="http://www.garmin.com/xmlschemas/TrackPointExtension/v1">
            <gpxtpx:hr>120</gpxtpx:hr>
          </gpxtpx:TrackPointExtension>
        </extensions>
      </trkpt>
      <trkpt lat="48.82868" lon="-3.52306">
        <ele>6.1999998092651</ele>
        <time>2016-02-04T11:35:04.000Z</time>
        <extensions>
          <gpxtpx:TrackPointExtension xmlns:gpxtpx="http://www.garmin.com/xmlschemas/TrackPointExtension/v1">
            <gpxtpx:hr>120</gpxtpx:hr>
          </gpxtpx:TrackPointExtension>
        </extensions>
      </trkpt>
      <trkpt lat="48.82888" lon="-3.52305">
        <ele>5.5999999046326</ele>
        <time>2016-02-04T11:35:11.000Z</time>
        <extensions>
          <gpxtpx:TrackPointExtension xmlns:gpxtpx="http://www.garmin.com/xmlschemas/TrackPointExtension/v1">
            <gpxtpx:hr>123</gpxtpx:hr>
          </gpxtpx:TrackPointExtension>
        </extensions>
      </trkpt>
      <trkpt lat="48.82906" lon="-3.52302">
        <ele>6.4000000953674</ele>
        <time>2016-02-04T11:35:18.000Z</time>
        <extensions>
          <gpxtpx:TrackPointExtension xmlns:gpxtpx="http://www.garmin.com/xmlschemas/TrackPointExtension/v1">
            <gpxtpx:hr>125</gpxtpx:hr>
          </gpxtpx:TrackPointExtension>
        </extensions>
      </trkpt>
      <trkpt lat="48.82923" lon="-3.52292">
        <ele>6.8000001907349</ele>
        <time>2016-02-04T11:35:25.000Z</time>
        <extensions>
          <gpxtpx:TrackPointExtension xmlns:gpxtpx="http://www.garmin.com/xmlschemas/TrackPointExtension/v1">
            <gpxtpx:hr>125</gpxtpx:hr>
          </gpxtpx:TrackPointExtension>
        </extensions>
      </trkpt>
      <trkpt lat="48.82923" lon="-3.52288">
        <ele>7.1999998092651</ele>
        <time>2016-02-04T11:35:26.000Z</time>
        <extensions>
          <gpxtpx:TrackPointExtension xmlns:gpxtpx="http://www.garmin.com/xmlschemas/TrackPointExtension/v1">
            <gpxtpx:hr>126</gpxtpx:hr>
          </gpxtpx:TrackPointExtension>
        </extensions>
      </trkpt>
      <trkpt lat="48.82922" lon="-3.52258">
        <ele>7.1999998092651</ele>
        <time>2016-02-04T11:35:33.000Z</time>
        <extensions>
          <gpxtpx:TrackPointExtension xmlns:gpxtpx="http://www.garmin.com/xmlschemas/TrackPointExtension/v1">
            <gpxtpx:hr>126</gpxtpx:hr>
          </gpxtpx:TrackPointExtension>
        </extensions>
      </trkpt>
      <trkpt lat="48.82919" lon="-3.5223">
        <ele>7</ele>
        <time>2016-02-04T11:35:40.000Z</time>
        <extensions>
          <gpxtpx:TrackPointExtension xmlns:gpxtpx="http://www.garmin.com/xmlschemas/TrackPointExtension/v1">
            <gpxtpx:hr>126</gpxtpx:hr>
          </gpxtpx:TrackPointExtension>
        </extensions>
      </trkpt>
      <trkpt lat="48.82916" lon="-3.52202">
        <ele>7</ele>
        <time>2016-02-04T11:35:47.000Z</time>
        <extensions>
          <gpxtpx:TrackPointExtension xmlns:gpxtpx="http://www.garmin.com/xmlschemas/TrackPointExtension/v1">
            <gpxtpx:hr>125</gpxtpx:hr>
          </gpxtpx:TrackPointExtension>
        </extensions>
      </trkpt>
      <trkpt lat="48.82915" lon="-3.52172">
        <ele>7.4000000953674</ele>
        <time>2016-02-04T11:35:54.000Z</time>
        <extensions>
          <gpxtpx:TrackPointExtension xmlns:gpxtpx="http://www.garmin.com/xmlschemas/TrackPointExtension/v1">
            <gpxtpx:hr>123</gpxtpx:hr>
          </gpxtpx:TrackPointExtension>
        </extensions>
      </trkpt>
      <trkpt lat="48.82916" lon="-3.52143">
        <ele>7.5999999046326</ele>
        <time>2016-02-04T11:36:01.000Z</time>
        <extensions>
          <gpxtpx:TrackPointExtension xmlns:gpxtpx="http://www.garmin.com/xmlschemas/TrackPointExtension/v1">
            <gpxtpx:hr>123</gpxtpx:hr>
          </gpxtpx:TrackPointExtension>
        </extensions>
      </trkpt>
      <trkpt lat="48.82914" lon="-3.52113">
        <ele>8.1999998092651</ele>
        <time>2016-02-04T11:36:08.000Z</time>
        <extensions>
          <gpxtpx:TrackPointExtension xmlns:gpxtpx="http://www.garmin.com/xmlschemas/TrackPointExtension/v1">
            <gpxtpx:hr>123</gpxtpx:hr>
          </gpxtpx:TrackPointExtension>
        </extensions>
      </trkpt>
      <trkpt lat="48.82912" lon="-3.52084">
        <ele>8.3999996185303</ele>
        <time>2016-02-04T11:36:15.000Z</time>
        <extensions>
          <gpxtpx:TrackPointExtension xmlns:gpxtpx="http://www.garmin.com/xmlschemas/TrackPointExtension/v1">
            <gpxtpx:hr>122</gpxtpx:hr>
          </gpxtpx:TrackPointExtension>
        </extensions>
      </trkpt>
      <trkpt lat="48.82911" lon="-3.52056">
        <ele>8.8000001907349</ele>
        <time>2016-02-04T11:36:22.000Z</time>
        <extensions>
          <gpxtpx:TrackPointExtension xmlns:gpxtpx="http://www.garmin.com/xmlschemas/TrackPointExtension/v1">
            <gpxtpx:hr>123</gpxtpx:hr>
          </gpxtpx:TrackPointExtension>
        </extensions>
      </trkpt>
      <trkpt lat="48.82907" lon="-3.52032">
        <ele>9.3999996185303</ele>
        <time>2016-02-04T11:36:28.000Z</time>
        <extensions>
          <gpxtpx:TrackPointExtension xmlns:gpxtpx="http://www.garmin.com/xmlschemas/TrackPointExtension/v1">
            <gpxtpx:hr>124</gpxtpx:hr>
          </gpxtpx:TrackPointExtension>
        </extensions>
      </trkpt>
      <trkpt lat="48.82906" lon="-3.52002">
        <ele>10</ele>
        <time>2016-02-04T11:36:36.000Z</time>
        <extensions>
          <gpxtpx:TrackPointExtension xmlns:gpxtpx="http://www.garmin.com/xmlschemas/TrackPointExtension/v1">
            <gpxtpx:hr>125</gpxtpx:hr>
          </gpxtpx:TrackPointExtension>
        </extensions>
      </trkpt>
      <trkpt lat="48.82905" lon="-3.51991">
        <ele>10.39999961853</ele>
        <time>2016-02-04T11:36:39.000Z</time>
        <extensions>
          <gpxtpx:TrackPointExtension xmlns:gpxtpx="http://www.garmin.com/xmlschemas/TrackPointExtension/v1">
            <gpxtpx:hr>125</gpxtpx:hr>
          </gpxtpx:TrackPointExtension>
        </extensions>
      </trkpt>
      <trkpt lat="48.82905" lon="-3.51974">
        <ele>11.60000038147</ele>
        <time>2016-02-04T11:36:44.000Z</time>
        <extensions>
          <gpxtpx:TrackPointExtension xmlns:gpxtpx="http://www.garmin.com/xmlschemas/TrackPointExtension/v1">
            <gpxtpx:hr>126</gpxtpx:hr>
          </gpxtpx:TrackPointExtension>
        </extensions>
      </trkpt>
      <trkpt lat="48.82905" lon="-3.51961">
        <ele>13</ele>
        <time>2016-02-04T11:36:48.000Z</time>
        <extensions>
          <gpxtpx:TrackPointExtension xmlns:gpxtpx="http://www.garmin.com/xmlschemas/TrackPointExtension/v1">
            <gpxtpx:hr>126</gpxtpx:hr>
          </gpxtpx:TrackPointExtension>
        </extensions>
      </trkpt>
      <trkpt lat="48.829" lon="-3.5193">
        <ele>13.800000190735</ele>
        <time>2016-02-04T11:36:56.000Z</time>
        <extensions>
          <gpxtpx:TrackPointExtension xmlns:gpxtpx="http://www.garmin.com/xmlschemas/TrackPointExtension/v1">
            <gpxtpx:hr>128</gpxtpx:hr>
          </gpxtpx:TrackPointExtension>
        </extensions>
      </trkpt>
      <trkpt lat="48.82899" lon="-3.51927">
        <ele>14</ele>
        <time>2016-02-04T11:36:57.000Z</time>
        <extensions>
          <gpxtpx:TrackPointExtension xmlns:gpxtpx="http://www.garmin.com/xmlschemas/TrackPointExtension/v1">
            <gpxtpx:hr>128</gpxtpx:hr>
          </gpxtpx:TrackPointExtension>
        </extensions>
      </trkpt>
      <trkpt lat="48.82897" lon="-3.51915">
        <ele>15</ele>
        <time>2016-02-04T11:37:00.000Z</time>
        <extensions>
          <gpxtpx:TrackPointExtension xmlns:gpxtpx="http://www.garmin.com/xmlschemas/TrackPointExtension/v1">
            <gpxtpx:hr>129</gpxtpx:hr>
          </gpxtpx:TrackPointExtension>
        </extensions>
      </trkpt>
      <trkpt lat="48.82895" lon="-3.51898">
        <ele>16.200000762939</ele>
        <time>2016-02-04T11:37:05.000Z</time>
        <extensions>
          <gpxtpx:TrackPointExtension xmlns:gpxtpx="http://www.garmin.com/xmlschemas/TrackPointExtension/v1">
            <gpxtpx:hr>129</gpxtpx:hr>
          </gpxtpx:TrackPointExtension>
        </extensions>
      </trkpt>
      <trkpt lat="48.82892" lon="-3.51885">
        <ele>17.60000038147</ele>
        <time>2016-02-04T11:37:09.000Z</time>
        <extensions>
          <gpxtpx:TrackPointExtension xmlns:gpxtpx="http://www.garmin.com/xmlschemas/TrackPointExtension/v1">
            <gpxtpx:hr>130</gpxtpx:hr>
          </gpxtpx:TrackPointExtension>
        </extensions>
      </trkpt>
      <trkpt lat="48.82889" lon="-3.51875">
        <ele>18.60000038147</ele>
        <time>2016-02-04T11:37:12.000Z</time>
        <extensions>
          <gpxtpx:TrackPointExtension xmlns:gpxtpx="http://www.garmin.com/xmlschemas/TrackPointExtension/v1">
            <gpxtpx:hr>131</gpxtpx:hr>
          </gpxtpx:TrackPointExtension>
        </extensions>
      </trkpt>
      <trkpt lat="48.82886" lon="-3.51862">
        <ele>19.799999237061</ele>
        <time>2016-02-04T11:37:16.000Z</time>
        <extensions>
          <gpxtpx:TrackPointExtension xmlns:gpxtpx="http://www.garmin.com/xmlschemas/TrackPointExtension/v1">
            <gpxtpx:hr>132</gpxtpx:hr>
          </gpxtpx:TrackPointExtension>
        </extensions>
      </trkpt>
      <trkpt lat="48.82883" lon="-3.51853">
        <ele>21</ele>
        <time>2016-02-04T11:37:19.000Z</time>
        <extensions>
          <gpxtpx:TrackPointExtension xmlns:gpxtpx="http://www.garmin.com/xmlschemas/TrackPointExtension/v1">
            <gpxtpx:hr>133</gpxtpx:hr>
          </gpxtpx:TrackPointExtension>
        </extensions>
      </trkpt>
      <trkpt lat="48.82881" lon="-3.51844">
        <ele>22.39999961853</ele>
        <time>2016-02-04T11:37:22.000Z</time>
        <extensions>
          <gpxtpx:TrackPointExtension xmlns:gpxtpx="http://www.garmin.com/xmlschemas/TrackPointExtension/v1">
            <gpxtpx:hr>134</gpxtpx:hr>
          </gpxtpx:TrackPointExtension>
        </extensions>
      </trkpt>
      <trkpt lat="48.8288" lon="-3.51837">
        <ele>23.60000038147</ele>
        <time>2016-02-04T11:37:24.000Z</time>
        <extensions>
          <gpxtpx:TrackPointExtension xmlns:gpxtpx="http://www.garmin.com/xmlschemas/TrackPointExtension/v1">
            <gpxtpx:hr>134</gpxtpx:hr>
          </gpxtpx:TrackPointExtension>
        </extensions>
      </trkpt>
      <trkpt lat="48.82877" lon="-3.51811">
        <ele>24.60000038147</ele>
        <time>2016-02-04T11:37:31.000Z</time>
        <extensions>
          <gpxtpx:TrackPointExtension xmlns:gpxtpx="http://www.garmin.com/xmlschemas/TrackPointExtension/v1">
            <gpxtpx:hr>134</gpxtpx:hr>
          </gpxtpx:TrackPointExtension>
        </extensions>
      </trkpt>
      <trkpt lat="48.82874" lon="-3.51794">
        <ele>25.799999237061</ele>
        <time>2016-02-04T11:37:36.000Z</time>
        <extensions>
          <gpxtpx:TrackPointExtension xmlns:gpxtpx="http://www.garmin.com/xmlschemas/TrackPointExtension/v1">
            <gpxtpx:hr>137</gpxtpx:hr>
          </gpxtpx:TrackPointExtension>
        </extensions>
      </trkpt>
      <trkpt lat="48.82871" lon="-3.5178">
        <ele>27</ele>
        <time>2016-02-04T11:37:40.000Z</time>
        <extensions>
          <gpxtpx:TrackPointExtension xmlns:gpxtpx="http://www.garmin.com/xmlschemas/TrackPointExtension/v1">
            <gpxtpx:hr>138</gpxtpx:hr>
          </gpxtpx:TrackPointExtension>
        </extensions>
      </trkpt>
      <trkpt lat="48.82869" lon="-3.51767">
        <ele>28</ele>
        <time>2016-02-04T11:37:44.000Z</time>
        <extensions>
          <gpxtpx:TrackPointExtension xmlns:gpxtpx="http://www.garmin.com/xmlschemas/TrackPointExtension/v1">
            <gpxtpx:hr>138</gpxtpx:hr>
          </gpxtpx:TrackPointExtension>
        </extensions>
      </trkpt>
      <trkpt lat="48.82868" lon="-3.51754">
        <ele>29.200000762939</ele>
        <time>2016-02-04T11:37:48.000Z</time>
        <extensions>
          <gpxtpx:TrackPointExtension xmlns:gpxtpx="http://www.garmin.com/xmlschemas/TrackPointExtension/v1">
            <gpxtpx:hr>139</gpxtpx:hr>
          </gpxtpx:TrackPointExtension>
        </extensions>
      </trkpt>
      <trkpt lat="48.82871" lon="-3.51748">
        <ele>29.60000038147</ele>
        <time>2016-02-04T11:37:50.000Z</time>
        <extensions>
          <gpxtpx:TrackPointExtension xmlns:gpxtpx="http://www.garmin.com/xmlschemas/TrackPointExtension/v1">
            <gpxtpx:hr>139</gpxtpx:hr>
          </gpxtpx:TrackPointExtension>
        </extensions>
      </trkpt>
      <trkpt lat="48.82878" lon="-3.51747">
        <ele>30.200000762939</ele>
        <time>2016-02-04T11:37:53.000Z</time>
        <extensions>
          <gpxtpx:TrackPointExtension xmlns:gpxtpx="http://www.garmin.com/xmlschemas/TrackPointExtension/v1">
            <gpxtpx:hr>140</gpxtpx:hr>
          </gpxtpx:TrackPointExtension>
        </extensions>
      </trkpt>
      <trkpt lat="48.82889" lon="-3.51755">
        <ele>30.60000038147</ele>
        <time>2016-02-04T11:37:58.000Z</time>
        <extensions>
          <gpxtpx:TrackPointExtension xmlns:gpxtpx="http://www.garmin.com/xmlschemas/TrackPointExtension/v1">
            <gpxtpx:hr>139</gpxtpx:hr>
          </gpxtpx:TrackPointExtension>
        </extensions>
      </trkpt>
      <trkpt lat="48.829" lon="-3.51764">
        <ele>31.60000038147</ele>
        <time>2016-02-04T11:38:03.000Z</time>
        <extensions>
          <gpxtpx:TrackPointExtension xmlns:gpxtpx="http://www.garmin.com/xmlschemas/TrackPointExtension/v1">
            <gpxtpx:hr>140</gpxtpx:hr>
          </gpxtpx:TrackPointExtension>
        </extensions>
      </trkpt>
      <trkpt lat="48.82918" lon="-3.51778">
        <ele>32.200000762939</ele>
        <time>2016-02-04T11:38:11.000Z</time>
        <extensions>
          <gpxtpx:TrackPointExtension xmlns:gpxtpx="http://www.garmin.com/xmlschemas/TrackPointExtension/v1">
            <gpxtpx:hr>140</gpxtpx:hr>
          </gpxtpx:TrackPointExtension>
        </extensions>
      </trkpt>
      <trkpt lat="48.82936" lon="-3.51789">
        <ele>31.39999961853</ele>
        <time>2016-02-04T11:38:19.000Z</time>
        <extensions>
          <gpxtpx:TrackPointExtension xmlns:gpxtpx="http://www.garmin.com/xmlschemas/TrackPointExtension/v1">
            <gpxtpx:hr>139</gpxtpx:hr>
          </gpxtpx:TrackPointExtension>
        </extensions>
      </trkpt>
      <trkpt lat="48.82944" lon="-3.51789">
        <ele>32.599998474121</ele>
        <time>2016-02-04T11:38:22.000Z</time>
        <extensions>
          <gpxtpx:TrackPointExtension xmlns:gpxtpx="http://www.garmin.com/xmlschemas/TrackPointExtension/v1">
            <gpxtpx:hr>138</gpxtpx:hr>
          </gpxtpx:TrackPointExtension>
        </extensions>
      </trkpt>
      <trkpt lat="48.82955" lon="-3.51782">
        <ele>33.799999237061</ele>
        <time>2016-02-04T11:38:27.000Z</time>
        <extensions>
          <gpxtpx:TrackPointExtension xmlns:gpxtpx="http://www.garmin.com/xmlschemas/TrackPointExtension/v1">
            <gpxtpx:hr>138</gpxtpx:hr>
          </gpxtpx:TrackPointExtension>
        </extensions>
      </trkpt>
      <trkpt lat="48.82968" lon="-3.51761">
        <ele>33.599998474121</ele>
        <time>2016-02-04T11:38:34.000Z</time>
        <extensions>
          <gpxtpx:TrackPointExtension xmlns:gpxtpx="http://www.garmin.com/xmlschemas/TrackPointExtension/v1">
            <gpxtpx:hr>137</gpxtpx:hr>
          </gpxtpx:TrackPointExtension>
        </extensions>
      </trkpt>
      <trkpt lat="48.82978" lon="-3.51737">
        <ele>33</ele>
        <time>2016-02-04T11:38:40.000Z</time>
        <extensions>
          <gpxtpx:TrackPointExtension xmlns:gpxtpx="http://www.garmin.com/xmlschemas/TrackPointExtension/v1">
            <gpxtpx:hr>136</gpxtpx:hr>
          </gpxtpx:TrackPointExtension>
        </extensions>
      </trkpt>
      <trkpt lat="48.8298" lon="-3.51728">
        <ele>32.599998474121</ele>
        <time>2016-02-04T11:38:42.000Z</time>
        <extensions>
          <gpxtpx:TrackPointExtension xmlns:gpxtpx="http://www.garmin.com/xmlschemas/TrackPointExtension/v1">
            <gpxtpx:hr>135</gpxtpx:hr>
          </gpxtpx:TrackPointExtension>
        </extensions>
      </trkpt>
      <trkpt lat="48.82985" lon="-3.51699">
        <ele>32.400001525879</ele>
        <time>2016-02-04T11:38:49.000Z</time>
        <extensions>
          <gpxtpx:TrackPointExtension xmlns:gpxtpx="http://www.garmin.com/xmlschemas/TrackPointExtension/v1">
            <gpxtpx:hr>134</gpxtpx:hr>
          </gpxtpx:TrackPointExtension>
        </extensions>
      </trkpt>
      <trkpt lat="48.82986" lon="-3.5167">
        <ele>32.200000762939</ele>
        <time>2016-02-04T11:38:56.000Z</time>
        <extensions>
          <gpxtpx:TrackPointExtension xmlns:gpxtpx="http://www.garmin.com/xmlschemas/TrackPointExtension/v1">
            <gpxtpx:hr>132</gpxtpx:hr>
          </gpxtpx:TrackPointExtension>
        </extensions>
      </trkpt>
      <trkpt lat="48.82986" lon="-3.51641">
        <ele>32.799999237061</ele>
        <time>2016-02-04T11:39:03.000Z</time>
        <extensions>
          <gpxtpx:TrackPointExtension xmlns:gpxtpx="http://www.garmin.com/xmlschemas/TrackPointExtension/v1">
            <gpxtpx:hr>132</gpxtpx:hr>
          </gpxtpx:TrackPointExtension>
        </extensions>
      </trkpt>
      <trkpt lat="48.82983" lon="-3.51616">
        <ele>33.200000762939</ele>
        <time>2016-02-04T11:39:09.000Z</time>
        <extensions>
          <gpxtpx:TrackPointExtension xmlns:gpxtpx="http://www.garmin.com/xmlschemas/TrackPointExtension/v1">
            <gpxtpx:hr>131</gpxtpx:hr>
          </gpxtpx:TrackPointExtension>
        </extensions>
      </trkpt>
      <trkpt lat="48.82977" lon="-3.51602">
        <ele>33.799999237061</ele>
        <time>2016-02-04T11:39:13.000Z</time>
        <extensions>
          <gpxtpx:TrackPointExtension xmlns:gpxtpx="http://www.garmin.com/xmlschemas/TrackPointExtension/v1">
            <gpxtpx:hr>130</gpxtpx:hr>
          </gpxtpx:TrackPointExtension>
        </extensions>
      </trkpt>
      <trkpt lat="48.82962" lon="-3.51586">
        <ele>33.799999237061</ele>
        <time>2016-02-04T11:39:20.000Z</time>
        <extensions>
          <gpxtpx:TrackPointExtension xmlns:gpxtpx="http://www.garmin.com/xmlschemas/TrackPointExtension/v1">
            <gpxtpx:hr>129</gpxtpx:hr>
          </gpxtpx:TrackPointExtension>
        </extensions>
      </trkpt>
      <trkpt lat="48.82944" lon="-3.51577">
        <ele>33.599998474121</ele>
        <time>2016-02-04T11:39:27.000Z</time>
        <extensions>
          <gpxtpx:TrackPointExtension xmlns:gpxtpx="http://www.garmin.com/xmlschemas/TrackPointExtension/v1">
            <gpxtpx:hr>129</gpxtpx:hr>
          </gpxtpx:TrackPointExtension>
        </extensions>
      </trkpt>
      <trkpt lat="48.82925" lon="-3.51568">
        <ele>32.799999237061</ele>
        <time>2016-02-04T11:39:34.000Z</time>
        <extensions>
          <gpxtpx:TrackPointExtension xmlns:gpxtpx="http://www.garmin.com/xmlschemas/TrackPointExtension/v1">
            <gpxtpx:hr>129</gpxtpx:hr>
          </gpxtpx:TrackPointExtension>
        </extensions>
      </trkpt>
      <trkpt lat="48.8291" lon="-3.5156">
        <ele>31.60000038147</ele>
        <time>2016-02-04T11:39:39.000Z</time>
        <extensions>
          <gpxtpx:TrackPointExtension xmlns:gpxtpx="http://www.garmin.com/xmlschemas/TrackPointExtension/v1">
            <gpxtpx:hr>129</gpxtpx:hr>
          </gpxtpx:TrackPointExtension>
        </extensions>
      </trkpt>
      <trkpt lat="48.82896" lon="-3.51554">
        <ele>30.39999961853</ele>
        <time>2016-02-04T11:39:44.000Z</time>
        <extensions>
          <gpxtpx:TrackPointExtension xmlns:gpxtpx="http://www.garmin.com/xmlschemas/TrackPointExtension/v1">
            <gpxtpx:hr>128</gpxtpx:hr>
          </gpxtpx:TrackPointExtension>
        </extensions>
      </trkpt>
      <trkpt lat="48.82885" lon="-3.5154">
        <ele>30</ele>
        <time>2016-02-04T11:39:49.000Z</time>
        <extensions>
          <gpxtpx:TrackPointExtension xmlns:gpxtpx="http://www.garmin.com/xmlschemas/TrackPointExtension/v1">
            <gpxtpx:hr>127</gpxtpx:hr>
          </gpxtpx:TrackPointExtension>
        </extensions>
      </trkpt>
      <trkpt lat="48.82899" lon="-3.51521">
        <ele>29.39999961853</ele>
        <time>2016-02-04T11:39:56.000Z</time>
        <extensions>
          <gpxtpx:TrackPointExtension xmlns:gpxtpx="http://www.garmin.com/xmlschemas/TrackPointExtension/v1">
            <gpxtpx:hr>126</gpxtpx:hr>
          </gpxtpx:TrackPointExtension>
        </extensions>
      </trkpt>
      <trkpt lat="48.82915" lon="-3.51508">
        <ele>29.200000762939</ele>
        <time>2016-02-04T11:40:02.000Z</time>
        <extensions>
          <gpxtpx:TrackPointExtension xmlns:gpxtpx="http://www.garmin.com/xmlschemas/TrackPointExtension/v1">
            <gpxtpx:hr>126</gpxtpx:hr>
          </gpxtpx:TrackPointExtension>
        </extensions>
      </trkpt>
      <trkpt lat="48.82931" lon="-3.51496">
        <ele>28.200000762939</ele>
        <time>2016-02-04T11:40:08.000Z</time>
        <extensions>
          <gpxtpx:TrackPointExtension xmlns:gpxtpx="http://www.garmin.com/xmlschemas/TrackPointExtension/v1">
            <gpxtpx:hr>126</gpxtpx:hr>
          </gpxtpx:TrackPointExtension>
        </extensions>
      </trkpt>
      <trkpt lat="48.82945" lon="-3.51484">
        <ele>27</ele>
        <time>2016-02-04T11:40:13.000Z</time>
        <extensions>
          <gpxtpx:TrackPointExtension xmlns:gpxtpx="http://www.garmin.com/xmlschemas/TrackPointExtension/v1">
            <gpxtpx:hr>126</gpxtpx:hr>
          </gpxtpx:TrackPointExtension>
        </extensions>
      </trkpt>
      <trkpt lat="48.82959" lon="-3.51471">
        <ele>25.799999237061</ele>
        <time>2016-02-04T11:40:18.000Z</time>
        <extensions>
          <gpxtpx:TrackPointExtension xmlns:gpxtpx="http://www.garmin.com/xmlschemas/TrackPointExtension/v1">
            <gpxtpx:hr>127</gpxtpx:hr>
          </gpxtpx:TrackPointExtension>
        </extensions>
      </trkpt>
      <trkpt lat="48.82975" lon="-3.51458">
        <ele>24.799999237061</ele>
        <time>2016-02-04T11:40:23.000Z</time>
        <extensions>
          <gpxtpx:TrackPointExtension xmlns:gpxtpx="http://www.garmin.com/xmlschemas/TrackPointExtension/v1">
            <gpxtpx:hr>127</gpxtpx:hr>
          </gpxtpx:TrackPointExtension>
        </extensions>
      </trkpt>
      <trkpt lat="48.82991" lon="-3.5144">
        <ele>23.60000038147</ele>
        <time>2016-02-04T11:40:29.000Z</time>
        <extensions>
          <gpxtpx:TrackPointExtension xmlns:gpxtpx="http://www.garmin.com/xmlschemas/TrackPointExtension/v1">
            <gpxtpx:hr>127</gpxtpx:hr>
          </gpxtpx:TrackPointExtension>
        </extensions>
      </trkpt>
      <trkpt lat="48.82997" lon="-3.51427">
        <ele>22.39999961853</ele>
        <time>2016-02-04T11:40:32.000Z</time>
        <extensions>
          <gpxtpx:TrackPointExtension xmlns:gpxtpx="http://www.garmin.com/xmlschemas/TrackPointExtension/v1">
            <gpxtpx:hr>127</gpxtpx:hr>
          </gpxtpx:TrackPointExtension>
        </extensions>
      </trkpt>
      <trkpt lat="48.83001" lon="-3.51405">
        <ele>21.200000762939</ele>
        <time>2016-02-04T11:40:36.000Z</time>
        <extensions>
          <gpxtpx:TrackPointExtension xmlns:gpxtpx="http://www.garmin.com/xmlschemas/TrackPointExtension/v1">
            <gpxtpx:hr>127</gpxtpx:hr>
          </gpxtpx:TrackPointExtension>
        </extensions>
      </trkpt>
      <trkpt lat="48.83008" lon="-3.5138">
        <ele>19.799999237061</ele>
        <time>2016-02-04T11:40:41.000Z</time>
        <extensions>
          <gpxtpx:TrackPointExtension xmlns:gpxtpx="http://www.garmin.com/xmlschemas/TrackPointExtension/v1">
            <gpxtpx:hr>127</gpxtpx:hr>
          </gpxtpx:TrackPointExtension>
        </extensions>
      </trkpt>
      <trkpt lat="48.8301" lon="-3.51377">
        <ele>19.60000038147</ele>
        <time>2016-02-04T11:40:42.000Z</time>
        <extensions>
          <gpxtpx:TrackPointExtension xmlns:gpxtpx="http://www.garmin.com/xmlschemas/TrackPointExtension/v1">
            <gpxtpx:hr>127</gpxtpx:hr>
          </gpxtpx:TrackPointExtension>
        </extensions>
      </trkpt>
      <trkpt lat="48.83024" lon="-3.51374">
        <ele>18.39999961853</ele>
        <time>2016-02-04T11:40:46.000Z</time>
        <extensions>
          <gpxtpx:TrackPointExtension xmlns:gpxtpx="http://www.garmin.com/xmlschemas/TrackPointExtension/v1">
            <gpxtpx:hr>127</gpxtpx:hr>
          </gpxtpx:TrackPointExtension>
        </extensions>
      </trkpt>
      <trkpt lat="48.83042" lon="-3.51379">
        <ele>17.60000038147</ele>
        <time>2016-02-04T11:40:51.000Z</time>
        <extensions>
          <gpxtpx:TrackPointExtension xmlns:gpxtpx="http://www.garmin.com/xmlschemas/TrackPointExtension/v1">
            <gpxtpx:hr>127</gpxtpx:hr>
          </gpxtpx:TrackPointExtension>
        </extensions>
      </trkpt>
      <trkpt lat="48.83046" lon="-3.51379">
        <ele>17.200000762939</ele>
        <time>2016-02-04T11:40:52.000Z</time>
        <extensions>
          <gpxtpx:TrackPointExtension xmlns:gpxtpx="http://www.garmin.com/xmlschemas/TrackPointExtension/v1">
            <gpxtpx:hr>126</gpxtpx:hr>
          </gpxtpx:TrackPointExtension>
        </extensions>
      </trkpt>
      <trkpt lat="48.83067" lon="-3.51383">
        <ele>16.60000038147</ele>
        <time>2016-02-04T11:40:58.000Z</time>
        <extensions>
          <gpxtpx:TrackPointExtension xmlns:gpxtpx="http://www.garmin.com/xmlschemas/TrackPointExtension/v1">
            <gpxtpx:hr>126</gpxtpx:hr>
          </gpxtpx:TrackPointExtension>
        </extensions>
      </trkpt>
      <trkpt lat="48.83074" lon="-3.51383">
        <ele>16.200000762939</ele>
        <time>2016-02-04T11:41:00.000Z</time>
        <extensions>
          <gpxtpx:TrackPointExtension xmlns:gpxtpx="http://www.garmin.com/xmlschemas/TrackPointExtension/v1">
            <gpxtpx:hr>126</gpxtpx:hr>
          </gpxtpx:TrackPointExtension>
        </extensions>
      </trkpt>
      <trkpt lat="48.83084" lon="-3.51374">
        <ele>14.800000190735</ele>
        <time>2016-02-04T11:41:04.000Z</time>
        <extensions>
          <gpxtpx:TrackPointExtension xmlns:gpxtpx="http://www.garmin.com/xmlschemas/TrackPointExtension/v1">
            <gpxtpx:hr>125</gpxtpx:hr>
          </gpxtpx:TrackPointExtension>
        </extensions>
      </trkpt>
      <trkpt lat="48.83091" lon="-3.51357">
        <ele>13.800000190735</ele>
        <time>2016-02-04T11:41:08.000Z</time>
        <extensions>
          <gpxtpx:TrackPointExtension xmlns:gpxtpx="http://www.garmin.com/xmlschemas/TrackPointExtension/v1">
            <gpxtpx:hr>125</gpxtpx:hr>
          </gpxtpx:TrackPointExtension>
        </extensions>
      </trkpt>
      <trkpt lat="48.83099" lon="-3.51348">
        <ele>13</ele>
        <time>2016-02-04T11:41:11.000Z</time>
        <extensions>
          <gpxtpx:TrackPointExtension xmlns:gpxtpx="http://www.garmin.com/xmlschemas/TrackPointExtension/v1">
            <gpxtpx:hr>124</gpxtpx:hr>
          </gpxtpx:TrackPointExtension>
        </extensions>
      </trkpt>
      <trkpt lat="48.83102" lon="-3.51348">
        <ele>12.800000190735</ele>
        <time>2016-02-04T11:41:12.000Z</time>
        <extensions>
          <gpxtpx:TrackPointExtension xmlns:gpxtpx="http://www.garmin.com/xmlschemas/TrackPointExtension/v1">
            <gpxtpx:hr>124</gpxtpx:hr>
          </gpxtpx:TrackPointExtension>
        </extensions>
      </trkpt>
      <trkpt lat="48.83105" lon="-3.51349">
        <ele>12.60000038147</ele>
        <time>2016-02-04T11:41:13.000Z</time>
        <extensions>
          <gpxtpx:TrackPointExtension xmlns:gpxtpx="http://www.garmin.com/xmlschemas/TrackPointExtension/v1">
            <gpxtpx:hr>124</gpxtpx:hr>
          </gpxtpx:TrackPointExtension>
        </extensions>
      </trkpt>
      <trkpt lat="48.83122" lon="-3.51364">
        <ele>11.60000038147</ele>
        <time>2016-02-04T11:41:19.000Z</time>
        <extensions>
          <gpxtpx:TrackPointExtension xmlns:gpxtpx="http://www.garmin.com/xmlschemas/TrackPointExtension/v1">
            <gpxtpx:hr>123</gpxtpx:hr>
          </gpxtpx:TrackPointExtension>
        </extensions>
      </trkpt>
      <trkpt lat="48.83138" lon="-3.51379">
        <ele>11</ele>
        <time>2016-02-04T11:41:25.000Z</time>
        <extensions>
          <gpxtpx:TrackPointExtension xmlns:gpxtpx="http://www.garmin.com/xmlschemas/TrackPointExtension/v1">
            <gpxtpx:hr>123</gpxtpx:hr>
          </gpxtpx:TrackPointExtension>
        </extensions>
      </trkpt>
      <trkpt lat="48.83151" lon="-3.51392">
        <ele>10.60000038147</ele>
        <time>2016-02-04T11:41:30.000Z</time>
        <extensions>
          <gpxtpx:TrackPointExtension xmlns:gpxtpx="http://www.garmin.com/xmlschemas/TrackPointExtension/v1">
            <gpxtpx:hr>124</gpxtpx:hr>
          </gpxtpx:TrackPointExtension>
        </extensions>
      </trkpt>
      <trkpt lat="48.83166" lon="-3.51407">
        <ele>9.8000001907349</ele>
        <time>2016-02-04T11:41:36.000Z</time>
        <extensions>
          <gpxtpx:TrackPointExtension xmlns:gpxtpx="http://www.garmin.com/xmlschemas/TrackPointExtension/v1">
            <gpxtpx:hr>124</gpxtpx:hr>
          </gpxtpx:TrackPointExtension>
        </extensions>
      </trkpt>
      <trkpt lat="48.83174" lon="-3.51415">
        <ele>9.1999998092651</ele>
        <time>2016-02-04T11:41:39.000Z</time>
        <extensions>
          <gpxtpx:TrackPointExtension xmlns:gpxtpx="http://www.garmin.com/xmlschemas/TrackPointExtension/v1">
            <gpxtpx:hr>124</gpxtpx:hr>
          </gpxtpx:TrackPointExtension>
        </extensions>
      </trkpt>
      <trkpt lat="48.83192" lon="-3.5143">
        <ele>9.3999996185303</ele>
        <time>2016-02-04T11:41:46.000Z</time>
        <extensions>
          <gpxtpx:TrackPointExtension xmlns:gpxtpx="http://www.garmin.com/xmlschemas/TrackPointExtension/v1">
            <gpxtpx:hr>124</gpxtpx:hr>
          </gpxtpx:TrackPointExtension>
        </extensions>
      </trkpt>
      <trkpt lat="48.83209" lon="-3.51445">
        <ele>8.1999998092651</ele>
        <time>2016-02-04T11:41:53.000Z</time>
        <extensions>
          <gpxtpx:TrackPointExtension xmlns:gpxtpx="http://www.garmin.com/xmlschemas/TrackPointExtension/v1">
            <gpxtpx:hr>124</gpxtpx:hr>
          </gpxtpx:TrackPointExtension>
        </extensions>
      </trkpt>
      <trkpt lat="48.83222" lon="-3.51456">
        <ele>8.1999998092651</ele>
        <time>2016-02-04T11:41:58.000Z</time>
        <extensions>
          <gpxtpx:TrackPointExtension xmlns:gpxtpx="http://www.garmin.com/xmlschemas/TrackPointExtension/v1">
            <gpxtpx:hr>123</gpxtpx:hr>
          </gpxtpx:TrackPointExtension>
        </extensions>
      </trkpt>
      <trkpt lat="48.83234" lon="-3.51474">
        <ele>8</ele>
        <time>2016-02-04T11:42:05.000Z</time>
        <extensions>
          <gpxtpx:TrackPointExtension xmlns:gpxtpx="http://www.garmin.com/xmlschemas/TrackPointExtension/v1">
            <gpxtpx:hr>123</gpxtpx:hr>
          </gpxtpx:TrackPointExtension>
        </extensions>
      </trkpt>
      <trkpt lat="48.83235" lon="-3.51477">
        <ele>8.3999996185303</ele>
        <time>2016-02-04T11:42:07.000Z</time>
        <extensions>
          <gpxtpx:TrackPointExtension xmlns:gpxtpx="http://www.garmin.com/xmlschemas/TrackPointExtension/v1">
            <gpxtpx:hr>123</gpxtpx:hr>
          </gpxtpx:TrackPointExtension>
        </extensions>
      </trkpt>
      <trkpt lat="48.83237" lon="-3.51476">
        <ele>8.3999996185303</ele>
        <time>2016-02-04T11:42:12.000Z</time>
        <extensions>
          <gpxtpx:TrackPointExtension xmlns:gpxtpx="http://www.garmin.com/xmlschemas/TrackPointExtension/v1">
            <gpxtpx:hr>121</gpxtpx:hr>
          </gpxtpx:TrackPointExtension>
        </extensions>
      </trkpt>
      <trkpt lat="48.83236" lon="-3.51478">
        <ele>7.8000001907349</ele>
        <time>2016-02-04T11:42:17.000Z</time>
        <extensions>
          <gpxtpx:TrackPointExtension xmlns:gpxtpx="http://www.garmin.com/xmlschemas/TrackPointExtension/v1">
            <gpxtpx:hr>118</gpxtpx:hr>
          </gpxtpx:TrackPointExtension>
        </extensions>
      </trkpt>
      <trkpt lat="48.83235" lon="-3.51479">
        <ele>8</ele>
        <time>2016-02-04T11:42:18.000Z</time>
        <extensions>
          <gpxtpx:TrackPointExtension xmlns:gpxtpx="http://www.garmin.com/xmlschemas/TrackPointExtension/v1">
            <gpxtpx:hr>118</gpxtpx:hr>
          </gpxtpx:TrackPointExtension>
        </extensions>
      </trkpt>
      <trkpt lat="48.83234" lon="-3.5148">
        <ele>8</ele>
        <time>2016-02-04T11:42:25.000Z</time>
        <extensions>
          <gpxtpx:TrackPointExtension xmlns:gpxtpx="http://www.garmin.com/xmlschemas/TrackPointExtension/v1">
            <gpxtpx:hr>115</gpxtpx:hr>
          </gpxtpx:TrackPointExtension>
        </extensions>
      </trkpt>
      <trkpt lat="48.83226" lon="-3.51507">
        <ele>9.1999998092651</ele>
        <time>2016-02-04T11:42:34.000Z</time>
        <extensions>
          <gpxtpx:TrackPointExtension xmlns:gpxtpx="http://www.garmin.com/xmlschemas/TrackPointExtension/v1">
            <gpxtpx:hr>115</gpxtpx:hr>
          </gpxtpx:TrackPointExtension>
        </extensions>
      </trkpt>
      <trkpt lat="48.83222" lon="-3.51521">
        <ele>9.3999996185303</ele>
        <time>2016-02-04T11:42:38.000Z</time>
        <extensions>
          <gpxtpx:TrackPointExtension xmlns:gpxtpx="http://www.garmin.com/xmlschemas/TrackPointExtension/v1">
            <gpxtpx:hr>117</gpxtpx:hr>
          </gpxtpx:TrackPointExtension>
        </extensions>
      </trkpt>
      <trkpt lat="48.83217" lon="-3.51536">
        <ele>10.39999961853</ele>
        <time>2016-02-04T11:42:42.000Z</time>
        <extensions>
          <gpxtpx:TrackPointExtension xmlns:gpxtpx="http://www.garmin.com/xmlschemas/TrackPointExtension/v1">
            <gpxtpx:hr>119</gpxtpx:hr>
          </gpxtpx:TrackPointExtension>
        </extensions>
      </trkpt>
      <trkpt lat="48.83212" lon="-3.51557">
        <ele>11.60000038147</ele>
        <time>2016-02-04T11:42:48.000Z</time>
        <extensions>
          <gpxtpx:TrackPointExtension xmlns:gpxtpx="http://www.garmin.com/xmlschemas/TrackPointExtension/v1">
            <gpxtpx:hr>121</gpxtpx:hr>
          </gpxtpx:TrackPointExtension>
        </extensions>
      </trkpt>
      <trkpt lat="48.83209" lon="-3.51579">
        <ele>11</ele>
        <time>2016-02-04T11:42:54.000Z</time>
        <extensions>
          <gpxtpx:TrackPointExtension xmlns:gpxtpx="http://www.garmin.com/xmlschemas/TrackPointExtension/v1">
            <gpxtpx:hr>124</gpxtpx:hr>
          </gpxtpx:TrackPointExtension>
        </extensions>
      </trkpt>
      <trkpt lat="48.83207" lon="-3.51607">
        <ele>11.800000190735</ele>
        <time>2016-02-04T11:43:01.000Z</time>
        <extensions>
          <gpxtpx:TrackPointExtension xmlns:gpxtpx="http://www.garmin.com/xmlschemas/TrackPointExtension/v1">
            <gpxtpx:hr>125</gpxtpx:hr>
          </gpxtpx:TrackPointExtension>
        </extensions>
      </trkpt>
      <trkpt lat="48.83204" lon="-3.51632">
        <ele>11.199999809265</ele>
        <time>2016-02-04T11:43:08.000Z</time>
        <extensions>
          <gpxtpx:TrackPointExtension xmlns:gpxtpx="http://www.garmin.com/xmlschemas/TrackPointExtension/v1">
            <gpxtpx:hr>128</gpxtpx:hr>
          </gpxtpx:TrackPointExtension>
        </extensions>
      </trkpt>
      <trkpt lat="48.83204" lon="-3.51636">
        <ele>11.39999961853</ele>
        <time>2016-02-04T11:43:11.000Z</time>
        <extensions>
          <gpxtpx:TrackPointExtension xmlns:gpxtpx="http://www.garmin.com/xmlschemas/TrackPointExtension/v1">
            <gpxtpx:hr>127</gpxtpx:hr>
          </gpxtpx:TrackPointExtension>
        </extensions>
      </trkpt>
      <trkpt lat="48.83203" lon="-3.51639">
        <ele>11.199999809265</ele>
        <time>2016-02-04T11:43:15.000Z</time>
        <extensions>
          <gpxtpx:TrackPointExtension xmlns:gpxtpx="http://www.garmin.com/xmlschemas/TrackPointExtension/v1">
            <gpxtpx:hr>124</gpxtpx:hr>
          </gpxtpx:TrackPointExtension>
        </extensions>
      </trkpt>
      <trkpt lat="48.83203" lon="-3.51639">
        <ele>11.60000038147</ele>
        <time>2016-02-04T11:43:19.000Z</time>
        <extensions>
          <gpxtpx:TrackPointExtension xmlns:gpxtpx="http://www.garmin.com/xmlschemas/TrackPointExtension/v1">
            <gpxtpx:hr>121</gpxtpx:hr>
          </gpxtpx:TrackPointExtension>
        </extensions>
      </trkpt>
      <trkpt lat="48.83203" lon="-3.51639">
        <ele>12</ele>
        <time>2016-02-04T11:43:22.000Z</time>
        <extensions>
          <gpxtpx:TrackPointExtension xmlns:gpxtpx="http://www.garmin.com/xmlschemas/TrackPointExtension/v1">
            <gpxtpx:hr>118</gpxtpx:hr>
          </gpxtpx:TrackPointExtension>
        </extensions>
      </trkpt>
      <trkpt lat="48.83202" lon="-3.5164">
        <ele>11.39999961853</ele>
        <time>2016-02-04T11:43:25.000Z</time>
        <extensions>
          <gpxtpx:TrackPointExtension xmlns:gpxtpx="http://www.garmin.com/xmlschemas/TrackPointExtension/v1">
            <gpxtpx:hr>115</gpxtpx:hr>
          </gpxtpx:TrackPointExtension>
        </extensions>
      </trkpt>
      <trkpt lat="48.83193" lon="-3.51654">
        <ele>10.60000038147</ele>
        <time>2016-02-04T11:43:30.000Z</time>
        <extensions>
          <gpxtpx:TrackPointExtension xmlns:gpxtpx="http://www.garmin.com/xmlschemas/TrackPointExtension/v1">
            <gpxtpx:hr>116</gpxtpx:hr>
          </gpxtpx:TrackPointExtension>
        </extensions>
      </trkpt>
      <trkpt lat="48.83187" lon="-3.51663">
        <ele>11.800000190735</ele>
        <time>2016-02-04T11:43:33.000Z</time>
        <extensions>
          <gpxtpx:TrackPointExtension xmlns:gpxtpx="http://www.garmin.com/xmlschemas/TrackPointExtension/v1">
            <gpxtpx:hr>118</gpxtpx:hr>
          </gpxtpx:TrackPointExtension>
        </extensions>
      </trkpt>
      <trkpt lat="48.83174" lon="-3.51684">
        <ele>12.199999809265</ele>
        <time>2016-02-04T11:43:40.000Z</time>
        <extensions>
          <gpxtpx:TrackPointExtension xmlns:gpxtpx="http://www.garmin.com/xmlschemas/TrackPointExtension/v1">
            <gpxtpx:hr>118</gpxtpx:hr>
          </gpxtpx:TrackPointExtension>
        </extensions>
      </trkpt>
      <trkpt lat="48.83169" lon="-3.51692">
        <ele>13</ele>
        <time>2016-02-04T11:43:43.000Z</time>
        <extensions>
          <gpxtpx:TrackPointExtension xmlns:gpxtpx="http://www.garmin.com/xmlschemas/TrackPointExtension/v1">
            <gpxtpx:hr>118</gpxtpx:hr>
          </gpxtpx:TrackPointExtension>
        </extensions>
      </trkpt>
      <trkpt lat="48.83165" lon="-3.51697">
        <ele>14.60000038147</ele>
        <time>2016-02-04T11:43:45.000Z</time>
        <extensions>
          <gpxtpx:TrackPointExtension xmlns:gpxtpx="http://www.garmin.com/xmlschemas/TrackPointExtension/v1">
            <gpxtpx:hr>119</gpxtpx:hr>
          </gpxtpx:TrackPointExtension>
        </extensions>
      </trkpt>
      <trkpt lat="48.83152" lon="-3.51715">
        <ele>15.60000038147</ele>
        <time>2016-02-04T11:43:52.000Z</time>
        <extensions>
          <gpxtpx:TrackPointExtension xmlns:gpxtpx="http://www.garmin.com/xmlschemas/TrackPointExtension/v1">
            <gpxtpx:hr>121</gpxtpx:hr>
          </gpxtpx:TrackPointExtension>
        </extensions>
      </trkpt>
      <trkpt lat="48.83145" lon="-3.51724">
        <ele>17</ele>
        <time>2016-02-04T11:43:56.000Z</time>
        <extensions>
          <gpxtpx:TrackPointExtension xmlns:gpxtpx="http://www.garmin.com/xmlschemas/TrackPointExtension/v1">
            <gpxtpx:hr>122</gpxtpx:hr>
          </gpxtpx:TrackPointExtension>
        </extensions>
      </trkpt>
      <trkpt lat="48.83134" lon="-3.51734">
        <ele>18</ele>
        <time>2016-02-04T11:44:01.000Z</time>
        <extensions>
          <gpxtpx:TrackPointExtension xmlns:gpxtpx="http://www.garmin.com/xmlschemas/TrackPointExtension/v1">
            <gpxtpx:hr>124</gpxtpx:hr>
          </gpxtpx:TrackPointExtension>
        </extensions>
      </trkpt>
      <trkpt lat="48.83123" lon="-3.51741">
        <ele>18.799999237061</ele>
        <time>2016-02-04T11:44:06.000Z</time>
        <extensions>
          <gpxtpx:TrackPointExtension xmlns:gpxtpx="http://www.garmin.com/xmlschemas/TrackPointExtension/v1">
            <gpxtpx:hr>127</gpxtpx:hr>
          </gpxtpx:TrackPointExtension>
        </extensions>
      </trkpt>
      <trkpt lat="48.8312" lon="-3.51746">
        <ele>19.200000762939</ele>
        <time>2016-02-04T11:44:08.000Z</time>
        <extensions>
          <gpxtpx:TrackPointExtension xmlns:gpxtpx="http://www.garmin.com/xmlschemas/TrackPointExtension/v1">
            <gpxtpx:hr>127</gpxtpx:hr>
          </gpxtpx:TrackPointExtension>
        </extensions>
      </trkpt>
      <trkpt lat="48.8312" lon="-3.51758">
        <ele>18.799999237061</ele>
        <time>2016-02-04T11:44:12.000Z</time>
        <extensions>
          <gpxtpx:TrackPointExtension xmlns:gpxtpx="http://www.garmin.com/xmlschemas/TrackPointExtension/v1">
            <gpxtpx:hr>129</gpxtpx:hr>
          </gpxtpx:TrackPointExtension>
        </extensions>
      </trkpt>
      <trkpt lat="48.83118" lon="-3.51763">
        <ele>19.39999961853</ele>
        <time>2016-02-04T11:44:14.000Z</time>
        <extensions>
          <gpxtpx:TrackPointExtension xmlns:gpxtpx="http://www.garmin.com/xmlschemas/TrackPointExtension/v1">
            <gpxtpx:hr>130</gpxtpx:hr>
          </gpxtpx:TrackPointExtension>
        </extensions>
      </trkpt>
      <trkpt lat="48.83114" lon="-3.51769">
        <ele>20.39999961853</ele>
        <time>2016-02-04T11:44:17.000Z</time>
        <extensions>
          <gpxtpx:TrackPointExtension xmlns:gpxtpx="http://www.garmin.com/xmlschemas/TrackPointExtension/v1">
            <gpxtpx:hr>131</gpxtpx:hr>
          </gpxtpx:TrackPointExtension>
        </extensions>
      </trkpt>
      <trkpt lat="48.83109" lon="-3.51773">
        <ele>21.799999237061</ele>
        <time>2016-02-04T11:44:20.000Z</time>
        <extensions>
          <gpxtpx:TrackPointExtension xmlns:gpxtpx="http://www.garmin.com/xmlschemas/TrackPointExtension/v1">
            <gpxtpx:hr>131</gpxtpx:hr>
          </gpxtpx:TrackPointExtension>
        </extensions>
      </trkpt>
      <trkpt lat="48.83107" lon="-3.51777">
        <ele>22.799999237061</ele>
        <time>2016-02-04T11:44:22.000Z</time>
        <extensions>
          <gpxtpx:TrackPointExtension xmlns:gpxtpx="http://www.garmin.com/xmlschemas/TrackPointExtension/v1">
            <gpxtpx:hr>132</gpxtpx:hr>
          </gpxtpx:TrackPointExtension>
        </extensions>
      </trkpt>
      <trkpt lat="48.83103" lon="-3.51782">
        <ele>24</ele>
        <time>2016-02-04T11:44:25.000Z</time>
        <extensions>
          <gpxtpx:TrackPointExtension xmlns:gpxtpx="http://www.garmin.com/xmlschemas/TrackPointExtension/v1">
            <gpxtpx:hr>133</gpxtpx:hr>
          </gpxtpx:TrackPointExtension>
        </extensions>
      </trkpt>
      <trkpt lat="48.83097" lon="-3.51786">
        <ele>25</ele>
        <time>2016-02-04T11:44:29.000Z</time>
        <extensions>
          <gpxtpx:TrackPointExtension xmlns:gpxtpx="http://www.garmin.com/xmlschemas/TrackPointExtension/v1">
            <gpxtpx:hr>134</gpxtpx:hr>
          </gpxtpx:TrackPointExtension>
        </extensions>
      </trkpt>
      <trkpt lat="48.8308" lon="-3.5179">
        <ele>25.60000038147</ele>
        <time>2016-02-04T11:44:36.000Z</time>
        <extensions>
          <gpxtpx:TrackPointExtension xmlns:gpxtpx="http://www.garmin.com/xmlschemas/TrackPointExtension/v1">
            <gpxtpx:hr>137</gpxtpx:hr>
          </gpxtpx:TrackPointExtension>
        </extensions>
      </trkpt>
      <trkpt lat="48.83075" lon="-3.5179">
        <ele>26.39999961853</ele>
        <time>2016-02-04T11:44:38.000Z</time>
        <extensions>
          <gpxtpx:TrackPointExtension xmlns:gpxtpx="http://www.garmin.com/xmlschemas/TrackPointExtension/v1">
            <gpxtpx:hr>137</gpxtpx:hr>
          </gpxtpx:TrackPointExtension>
        </extensions>
      </trkpt>
      <trkpt lat="48.83056" lon="-3.51784">
        <ele>26.799999237061</ele>
        <time>2016-02-04T11:44:45.000Z</time>
        <extensions>
          <gpxtpx:TrackPointExtension xmlns:gpxtpx="http://www.garmin.com/xmlschemas/TrackPointExtension/v1">
            <gpxtpx:hr>138</gpxtpx:hr>
          </gpxtpx:TrackPointExtension>
        </extensions>
      </trkpt>
      <trkpt lat="48.83044" lon="-3.51776">
        <ele>27.39999961853</ele>
        <time>2016-02-04T11:44:51.000Z</time>
        <extensions>
          <gpxtpx:TrackPointExtension xmlns:gpxtpx="http://www.garmin.com/xmlschemas/TrackPointExtension/v1">
            <gpxtpx:hr>139</gpxtpx:hr>
          </gpxtpx:TrackPointExtension>
        </extensions>
      </trkpt>
      <trkpt lat="48.8303" lon="-3.5177">
        <ele>28.60000038147</ele>
        <time>2016-02-04T11:44:57.000Z</time>
        <extensions>
          <gpxtpx:TrackPointExtension xmlns:gpxtpx="http://www.garmin.com/xmlschemas/TrackPointExtension/v1">
            <gpxtpx:hr>139</gpxtpx:hr>
          </gpxtpx:TrackPointExtension>
        </extensions>
      </trkpt>
      <trkpt lat="48.83019" lon="-3.51768">
        <ele>29.799999237061</ele>
        <time>2016-02-04T11:45:02.000Z</time>
        <extensions>
          <gpxtpx:TrackPointExtension xmlns:gpxtpx="http://www.garmin.com/xmlschemas/TrackPointExtension/v1">
            <gpxtpx:hr>140</gpxtpx:hr>
          </gpxtpx:TrackPointExtension>
        </extensions>
      </trkpt>
      <trkpt lat="48.83006" lon="-3.51761">
        <ele>31</ele>
        <time>2016-02-04T11:45:08.000Z</time>
        <extensions>
          <gpxtpx:TrackPointExtension xmlns:gpxtpx="http://www.garmin.com/xmlschemas/TrackPointExtension/v1">
            <gpxtpx:hr>140</gpxtpx:hr>
          </gpxtpx:TrackPointExtension>
        </extensions>
      </trkpt>
      <trkpt lat="48.82995" lon="-3.51756">
        <ele>32.200000762939</ele>
        <time>2016-02-04T11:45:13.000Z</time>
        <extensions>
          <gpxtpx:TrackPointExtension xmlns:gpxtpx="http://www.garmin.com/xmlschemas/TrackPointExtension/v1">
            <gpxtpx:hr>140</gpxtpx:hr>
          </gpxtpx:TrackPointExtension>
        </extensions>
      </trkpt>
      <trkpt lat="48.82986" lon="-3.51754">
        <ele>33.200000762939</ele>
        <time>2016-02-04T11:45:18.000Z</time>
        <extensions>
          <gpxtpx:TrackPointExtension xmlns:gpxtpx="http://www.garmin.com/xmlschemas/TrackPointExtension/v1">
            <gpxtpx:hr>141</gpxtpx:hr>
          </gpxtpx:TrackPointExtension>
        </extensions>
      </trkpt>
      <trkpt lat="48.82977" lon="-3.51762">
        <ele>34.400001525879</ele>
        <time>2016-02-04T11:45:23.000Z</time>
        <extensions>
          <gpxtpx:TrackPointExtension xmlns:gpxtpx="http://www.garmin.com/xmlschemas/TrackPointExtension/v1">
            <gpxtpx:hr>140</gpxtpx:hr>
          </gpxtpx:TrackPointExtension>
        </extensions>
      </trkpt>
      <trkpt lat="48.82961" lon="-3.51781">
        <ele>34.799999237061</ele>
        <time>2016-02-04T11:45:31.000Z</time>
        <extensions>
          <gpxtpx:TrackPointExtension xmlns:gpxtpx="http://www.garmin.com/xmlschemas/TrackPointExtension/v1">
            <gpxtpx:hr>140</gpxtpx:hr>
          </gpxtpx:TrackPointExtension>
        </extensions>
      </trkpt>
      <trkpt lat="48.82944" lon="-3.51791">
        <ele>34.599998474121</ele>
        <time>2016-02-04T11:45:38.000Z</time>
        <extensions>
          <gpxtpx:TrackPointExtension xmlns:gpxtpx="http://www.garmin.com/xmlschemas/TrackPointExtension/v1">
            <gpxtpx:hr>140</gpxtpx:hr>
          </gpxtpx:TrackPointExtension>
        </extensions>
      </trkpt>
      <trkpt lat="48.82933" lon="-3.51791">
        <ele>33.400001525879</ele>
        <time>2016-02-04T11:45:42.000Z</time>
        <extensions>
          <gpxtpx:TrackPointExtension xmlns:gpxtpx="http://www.garmin.com/xmlschemas/TrackPointExtension/v1">
            <gpxtpx:hr>139</gpxtpx:hr>
          </gpxtpx:TrackPointExtension>
        </extensions>
      </trkpt>
      <trkpt lat="48.82916" lon="-3.51782">
        <ele>34</ele>
        <time>2016-02-04T11:45:48.000Z</time>
        <extensions>
          <gpxtpx:TrackPointExtension xmlns:gpxtpx="http://www.garmin.com/xmlschemas/TrackPointExtension/v1">
            <gpxtpx:hr>138</gpxtpx:hr>
          </gpxtpx:TrackPointExtension>
        </extensions>
      </trkpt>
      <trkpt lat="48.829" lon="-3.51767">
        <ele>33</ele>
        <time>2016-02-04T11:45:54.000Z</time>
        <extensions>
          <gpxtpx:TrackPointExtension xmlns:gpxtpx="http://www.garmin.com/xmlschemas/TrackPointExtension/v1">
            <gpxtpx:hr>136</gpxtpx:hr>
          </gpxtpx:TrackPointExtension>
        </extensions>
      </trkpt>
      <trkpt lat="48.82892" lon="-3.5176">
        <ele>32.200000762939</ele>
        <time>2016-02-04T11:45:57.000Z</time>
        <extensions>
          <gpxtpx:TrackPointExtension xmlns:gpxtpx="http://www.garmin.com/xmlschemas/TrackPointExtension/v1">
            <gpxtpx:hr>136</gpxtpx:hr>
          </gpxtpx:TrackPointExtension>
        </extensions>
      </trkpt>
      <trkpt lat="48.82876" lon="-3.51748">
        <ele>31.39999961853</ele>
        <time>2016-02-04T11:46:03.000Z</time>
        <extensions>
          <gpxtpx:TrackPointExtension xmlns:gpxtpx="http://www.garmin.com/xmlschemas/TrackPointExtension/v1">
            <gpxtpx:hr>135</gpxtpx:hr>
          </gpxtpx:TrackPointExtension>
        </extensions>
      </trkpt>
      <trkpt lat="48.82874" lon="-3.51748">
        <ele>31.200000762939</ele>
        <time>2016-02-04T11:46:04.000Z</time>
        <extensions>
          <gpxtpx:TrackPointExtension xmlns:gpxtpx="http://www.garmin.com/xmlschemas/TrackPointExtension/v1">
            <gpxtpx:hr>134</gpxtpx:hr>
          </gpxtpx:TrackPointExtension>
        </extensions>
      </trkpt>
      <trkpt lat="48.82871" lon="-3.5175">
        <ele>30.200000762939</ele>
        <time>2016-02-04T11:46:05.000Z</time>
        <extensions>
          <gpxtpx:TrackPointExtension xmlns:gpxtpx="http://www.garmin.com/xmlschemas/TrackPointExtension/v1">
            <gpxtpx:hr>134</gpxtpx:hr>
          </gpxtpx:TrackPointExtension>
        </extensions>
      </trkpt>
      <trkpt lat="48.8287" lon="-3.51754">
        <ele>29.60000038147</ele>
        <time>2016-02-04T11:46:06.000Z</time>
        <extensions>
          <gpxtpx:TrackPointExtension xmlns:gpxtpx="http://www.garmin.com/xmlschemas/TrackPointExtension/v1">
            <gpxtpx:hr>134</gpxtpx:hr>
          </gpxtpx:TrackPointExtension>
        </extensions>
      </trkpt>
      <trkpt lat="48.82871" lon="-3.51759">
        <ele>28.200000762939</ele>
        <time>2016-02-04T11:46:07.000Z</time>
        <extensions>
          <gpxtpx:TrackPointExtension xmlns:gpxtpx="http://www.garmin.com/xmlschemas/TrackPointExtension/v1">
            <gpxtpx:hr>134</gpxtpx:hr>
          </gpxtpx:TrackPointExtension>
        </extensions>
      </trkpt>
      <trkpt lat="48.82874" lon="-3.5178">
        <ele>27</ele>
        <time>2016-02-04T11:46:11.000Z</time>
        <extensions>
          <gpxtpx:TrackPointExtension xmlns:gpxtpx="http://www.garmin.com/xmlschemas/TrackPointExtension/v1">
            <gpxtpx:hr>132</gpxtpx:hr>
          </gpxtpx:TrackPointExtension>
        </extensions>
      </trkpt>
      <trkpt lat="48.82876" lon="-3.51791">
        <ele>25.799999237061</ele>
        <time>2016-02-04T11:46:13.000Z</time>
        <extensions>
          <gpxtpx:TrackPointExtension xmlns:gpxtpx="http://www.garmin.com/xmlschemas/TrackPointExtension/v1">
            <gpxtpx:hr>132</gpxtpx:hr>
          </gpxtpx:TrackPointExtension>
        </extensions>
      </trkpt>
      <trkpt lat="48.8288" lon="-3.51811">
        <ele>24.60000038147</ele>
        <time>2016-02-04T11:46:17.000Z</time>
        <extensions>
          <gpxtpx:TrackPointExtension xmlns:gpxtpx="http://www.garmin.com/xmlschemas/TrackPointExtension/v1">
            <gpxtpx:hr>130</gpxtpx:hr>
          </gpxtpx:TrackPointExtension>
        </extensions>
      </trkpt>
      <trkpt lat="48.82884" lon="-3.51831">
        <ele>23.200000762939</ele>
        <time>2016-02-04T11:46:21.000Z</time>
        <extensions>
          <gpxtpx:TrackPointExtension xmlns:gpxtpx="http://www.garmin.com/xmlschemas/TrackPointExtension/v1">
            <gpxtpx:hr>129</gpxtpx:hr>
          </gpxtpx:TrackPointExtension>
        </extensions>
      </trkpt>
      <trkpt lat="48.82886" lon="-3.5184">
        <ele>21.60000038147</ele>
        <time>2016-02-04T11:46:23.000Z</time>
        <extensions>
          <gpxtpx:TrackPointExtension xmlns:gpxtpx="http://www.garmin.com/xmlschemas/TrackPointExtension/v1">
            <gpxtpx:hr>128</gpxtpx:hr>
          </gpxtpx:TrackPointExtension>
        </extensions>
      </trkpt>
      <trkpt lat="48.8289" lon="-3.5186">
        <ele>20.60000038147</ele>
        <time>2016-02-04T11:46:27.000Z</time>
        <extensions>
          <gpxtpx:TrackPointExtension xmlns:gpxtpx="http://www.garmin.com/xmlschemas/TrackPointExtension/v1">
            <gpxtpx:hr>127</gpxtpx:hr>
          </gpxtpx:TrackPointExtension>
        </extensions>
      </trkpt>
      <trkpt lat="48.82893" lon="-3.51877">
        <ele>19.60000038147</ele>
        <time>2016-02-04T11:46:30.000Z</time>
        <extensions>
          <gpxtpx:TrackPointExtension xmlns:gpxtpx="http://www.garmin.com/xmlschemas/TrackPointExtension/v1">
            <gpxtpx:hr>127</gpxtpx:hr>
          </gpxtpx:TrackPointExtension>
        </extensions>
      </trkpt>
      <trkpt lat="48.82894" lon="-3.51887">
        <ele>18.39999961853</ele>
        <time>2016-02-04T11:46:32.000Z</time>
        <extensions>
          <gpxtpx:TrackPointExtension xmlns:gpxtpx="http://www.garmin.com/xmlschemas/TrackPointExtension/v1">
            <gpxtpx:hr>127</gpxtpx:hr>
          </gpxtpx:TrackPointExtension>
        </extensions>
      </trkpt>
      <trkpt lat="48.82896" lon="-3.51898">
        <ele>17.39999961853</ele>
        <time>2016-02-04T11:46:34.000Z</time>
        <extensions>
          <gpxtpx:TrackPointExtension xmlns:gpxtpx="http://www.garmin.com/xmlschemas/TrackPointExtension/v1">
            <gpxtpx:hr>127</gpxtpx:hr>
          </gpxtpx:TrackPointExtension>
        </extensions>
      </trkpt>
      <trkpt lat="48.82898" lon="-3.51915">
        <ele>16.39999961853</ele>
        <time>2016-02-04T11:46:37.000Z</time>
        <extensions>
          <gpxtpx:TrackPointExtension xmlns:gpxtpx="http://www.garmin.com/xmlschemas/TrackPointExtension/v1">
            <gpxtpx:hr>127</gpxtpx:hr>
          </gpxtpx:TrackPointExtension>
        </extensions>
      </trkpt>
      <trkpt lat="48.829" lon="-3.51925">
        <ele>15.199999809265</ele>
        <time>2016-02-04T11:46:39.000Z</time>
        <extensions>
          <gpxtpx:TrackPointExtension xmlns:gpxtpx="http://www.garmin.com/xmlschemas/TrackPointExtension/v1">
            <gpxtpx:hr>127</gpxtpx:hr>
          </gpxtpx:TrackPointExtension>
        </extensions>
      </trkpt>
      <trkpt lat="48.82909" lon="-3.51942">
        <ele>13.39999961853</ele>
        <time>2016-02-04T11:46:43.000Z</time>
        <extensions>
          <gpxtpx:TrackPointExtension xmlns:gpxtpx="http://www.garmin.com/xmlschemas/TrackPointExtension/v1">
            <gpxtpx:hr>126</gpxtpx:hr>
          </gpxtpx:TrackPointExtension>
        </extensions>
      </trkpt>
      <trkpt lat="48.82926" lon="-3.51952">
        <ele>13.39999961853</ele>
        <time>2016-02-04T11:46:49.000Z</time>
        <extensions>
          <gpxtpx:TrackPointExtension xmlns:gpxtpx="http://www.garmin.com/xmlschemas/TrackPointExtension/v1">
            <gpxtpx:hr>125</gpxtpx:hr>
          </gpxtpx:TrackPointExtension>
        </extensions>
      </trkpt>
      <trkpt lat="48.82943" lon="-3.51959">
        <ele>14.800000190735</ele>
        <time>2016-02-04T11:46:55.000Z</time>
        <extensions>
          <gpxtpx:TrackPointExtension xmlns:gpxtpx="http://www.garmin.com/xmlschemas/TrackPointExtension/v1">
            <gpxtpx:hr>125</gpxtpx:hr>
          </gpxtpx:TrackPointExtension>
        </extensions>
      </trkpt>
      <trkpt lat="48.82963" lon="-3.51965">
        <ele>14.199999809265</ele>
        <time>2016-02-04T11:47:02.000Z</time>
        <extensions>
          <gpxtpx:TrackPointExtension xmlns:gpxtpx="http://www.garmin.com/xmlschemas/TrackPointExtension/v1">
            <gpxtpx:hr>125</gpxtpx:hr>
          </gpxtpx:TrackPointExtension>
        </extensions>
      </trkpt>
      <trkpt lat="48.82981" lon="-3.51971">
        <ele>13</ele>
        <time>2016-02-04T11:47:09.000Z</time>
        <extensions>
          <gpxtpx:TrackPointExtension xmlns:gpxtpx="http://www.garmin.com/xmlschemas/TrackPointExtension/v1">
            <gpxtpx:hr>125</gpxtpx:hr>
          </gpxtpx:TrackPointExtension>
        </extensions>
      </trkpt>
      <trkpt lat="48.82985" lon="-3.51973">
        <ele>11.60000038147</ele>
        <time>2016-02-04T11:47:11.000Z</time>
        <extensions>
          <gpxtpx:TrackPointExtension xmlns:gpxtpx="http://www.garmin.com/xmlschemas/TrackPointExtension/v1">
            <gpxtpx:hr>125</gpxtpx:hr>
          </gpxtpx:TrackPointExtension>
        </extensions>
      </trkpt>
      <trkpt lat="48.82991" lon="-3.51978">
        <ele>10</ele>
        <time>2016-02-04T11:47:14.000Z</time>
        <extensions>
          <gpxtpx:TrackPointExtension xmlns:gpxtpx="http://www.garmin.com/xmlschemas/TrackPointExtension/v1">
            <gpxtpx:hr>125</gpxtpx:hr>
          </gpxtpx:TrackPointExtension>
        </extensions>
      </trkpt>
      <trkpt lat="48.82998" lon="-3.51981">
        <ele>8.1999998092651</ele>
        <time>2016-02-04T11:47:17.000Z</time>
        <extensions>
          <gpxtpx:TrackPointExtension xmlns:gpxtpx="http://www.garmin.com/xmlschemas/TrackPointExtension/v1">
            <gpxtpx:hr>124</gpxtpx:hr>
          </gpxtpx:TrackPointExtension>
        </extensions>
      </trkpt>
      <trkpt lat="48.83002" lon="-3.51982">
        <ele>7</ele>
        <time>2016-02-04T11:47:20.000Z</time>
        <extensions>
          <gpxtpx:TrackPointExtension xmlns:gpxtpx="http://www.garmin.com/xmlschemas/TrackPointExtension/v1">
            <gpxtpx:hr>124</gpxtpx:hr>
          </gpxtpx:TrackPointExtension>
        </extensions>
      </trkpt>
      <trkpt lat="48.83005" lon="-3.51983">
        <ele>5</ele>
        <time>2016-02-04T11:47:22.000Z</time>
        <extensions>
          <gpxtpx:TrackPointExtension xmlns:gpxtpx="http://www.garmin.com/xmlschemas/TrackPointExtension/v1">
            <gpxtpx:hr>124</gpxtpx:hr>
          </gpxtpx:TrackPointExtension>
        </extensions>
      </trkpt>
      <trkpt lat="48.83007" lon="-3.51984">
        <ele>3.5999999046326</ele>
        <time>2016-02-04T11:47:24.000Z</time>
        <extensions>
          <gpxtpx:TrackPointExtension xmlns:gpxtpx="http://www.garmin.com/xmlschemas/TrackPointExtension/v1">
            <gpxtpx:hr>123</gpxtpx:hr>
          </gpxtpx:TrackPointExtension>
        </extensions>
      </trkpt>
      <trkpt lat="48.83009" lon="-3.51988">
        <ele>2.7999999523163</ele>
        <time>2016-02-04T11:47:26.000Z</time>
        <extensions>
          <gpxtpx:TrackPointExtension xmlns:gpxtpx="http://www.garmin.com/xmlschemas/TrackPointExtension/v1">
            <gpxtpx:hr>122</gpxtpx:hr>
          </gpxtpx:TrackPointExtension>
        </extensions>
      </trkpt>
      <trkpt lat="48.83004" lon="-3.52015">
        <ele>3.2000000476837</ele>
        <time>2016-02-04T11:47:34.000Z</time>
        <extensions>
          <gpxtpx:TrackPointExtension xmlns:gpxtpx="http://www.garmin.com/xmlschemas/TrackPointExtension/v1">
            <gpxtpx:hr>120</gpxtpx:hr>
          </gpxtpx:TrackPointExtension>
        </extensions>
      </trkpt>
      <trkpt lat="48.83" lon="-3.52031">
        <ele>4.5999999046326</ele>
        <time>2016-02-04T11:47:39.000Z</time>
        <extensions>
          <gpxtpx:TrackPointExtension xmlns:gpxtpx="http://www.garmin.com/xmlschemas/TrackPointExtension/v1">
            <gpxtpx:hr>119</gpxtpx:hr>
          </gpxtpx:TrackPointExtension>
        </extensions>
      </trkpt>
      <trkpt lat="48.82999" lon="-3.52038">
        <ele>3.2000000476837</ele>
        <time>2016-02-04T11:47:41.000Z</time>
        <extensions>
          <gpxtpx:TrackPointExtension xmlns:gpxtpx="http://www.garmin.com/xmlschemas/TrackPointExtension/v1">
            <gpxtpx:hr>119</gpxtpx:hr>
          </gpxtpx:TrackPointExtension>
        </extensions>
      </trkpt>
      <trkpt lat="48.82999" lon="-3.52046">
        <ele>2.2000000476837</ele>
        <time>2016-02-04T11:47:43.000Z</time>
        <extensions>
          <gpxtpx:TrackPointExtension xmlns:gpxtpx="http://www.garmin.com/xmlschemas/TrackPointExtension/v1">
            <gpxtpx:hr>119</gpxtpx:hr>
          </gpxtpx:TrackPointExtension>
        </extensions>
      </trkpt>
      <trkpt lat="48.82998" lon="-3.52075">
        <ele>2.4000000953674</ele>
        <time>2016-02-04T11:47:50.000Z</time>
        <extensions>
          <gpxtpx:TrackPointExtension xmlns:gpxtpx="http://www.garmin.com/xmlschemas/TrackPointExtension/v1">
            <gpxtpx:hr>121</gpxtpx:hr>
          </gpxtpx:TrackPointExtension>
        </extensions>
      </trkpt>
      <trkpt lat="48.82997" lon="-3.52098">
        <ele>1.7999999523163</ele>
        <time>2016-02-04T11:47:56.000Z</time>
        <extensions>
          <gpxtpx:TrackPointExtension xmlns:gpxtpx="http://www.garmin.com/xmlschemas/TrackPointExtension/v1">
            <gpxtpx:hr>124</gpxtpx:hr>
          </gpxtpx:TrackPointExtension>
        </extensions>
      </trkpt>
      <trkpt lat="48.82997" lon="-3.5212">
        <ele>2.4000000953674</ele>
        <time>2016-02-04T11:48:02.000Z</time>
        <extensions>
          <gpxtpx:TrackPointExtension xmlns:gpxtpx="http://www.garmin.com/xmlschemas/TrackPointExtension/v1">
            <gpxtpx:hr>127</gpxtpx:hr>
          </gpxtpx:TrackPointExtension>
        </extensions>
      </trkpt>
      <trkpt lat="48.82997" lon="-3.52149">
        <ele>1.7999999523163</ele>
        <time>2016-02-04T11:48:10.000Z</time>
        <extensions>
          <gpxtpx:TrackPointExtension xmlns:gpxtpx="http://www.garmin.com/xmlschemas/TrackPointExtension/v1">
            <gpxtpx:hr>129</gpxtpx:hr>
          </gpxtpx:TrackPointExtension>
        </extensions>
      </trkpt>
      <trkpt lat="48.82999" lon="-3.52178">
        <ele>2.2000000476837</ele>
        <time>2016-02-04T11:48:18.000Z</time>
        <extensions>
          <gpxtpx:TrackPointExtension xmlns:gpxtpx="http://www.garmin.com/xmlschemas/TrackPointExtension/v1">
            <gpxtpx:hr>132</gpxtpx:hr>
          </gpxtpx:TrackPointExtension>
        </extensions>
      </trkpt>
      <trkpt lat="48.83001" lon="-3.52188">
        <ele>3</ele>
        <time>2016-02-04T11:48:22.000Z</time>
        <extensions>
          <gpxtpx:TrackPointExtension xmlns:gpxtpx="http://www.garmin.com/xmlschemas/TrackPointExtension/v1">
            <gpxtpx:hr>132</gpxtpx:hr>
          </gpxtpx:TrackPointExtension>
        </extensions>
      </trkpt>
    </trkseg>
  </trk>
</gpx>